FW4770 Weather Reports


time (UTC)temp
F
wind
direction
speed
knots
gust
knots
rain 1hr
in
rain 24hr
in
rain mn
in
humidity
%
barometer
mb
20260509055615 46 276 0.9 1.7 0.00 0.00 0.00 62 1002.7
20260509055539 46 276 0.9 1.7 0.00 0.00 0.00 61 1002.7
20260509055422 46 276 1.7 1.7 0.00 0.00 0.00 60 1002.7
20260509055325 46 276 1.7 1.7 0.00 0.00 0.00 60 1002.7
20260509055209 46 277 1.7 1.7 0.00 0.00 0.00 62 1002.8
20260509055113 46 277 0.9 1.7 0.00 0.00 0.00 62 1002.8
20260509055021 46 277 0.9 1.7 0.00 0.00 0.00 63 1002.8
20260509054926 46 321 0.0 0.9 0.00 0.00 0.00 64 1002.8
20260509054810 46 321 0.0 0.9 0.00 0.00 0.00 65 1002.8
20260509054714 46 321 0.0 0.9 0.00 0.00 0.00 64 1003.0
20260509054617 46 321 0.0 0.9 0.00 0.00 0.00 64 1003.0
20260509054521 46 321 0.0 0.9 0.00 0.00 0.00 65 1003.1
20260509054409 46 321 0.0 0.9 0.00 0.00 0.00 64 1003.1
20260509054313 46 321 0.0 0.9 0.00 0.00 0.00 64 1003.1
20260509054217 46 321 0.0 0.9 0.00 0.00 0.00 65 1003.1
20260509054142 46 321 0.0 0.9 0.00 0.00 0.00 65 1003.0
20260509054006 46 321 0.0 0.9 0.00 0.00 0.00 65 1003.0
20260509053911 46 321 0.0 0.9 0.00 0.00 0.00 64 1003.1
20260509053839 46 321 0.0 0.9 0.00 0.00 0.00 64 1003.0
20260509053742 46 321 0.0 0.9 0.00 0.00 0.00 64 1003.1
20260509053624 46 321 0.0 0.9 0.00 0.00 0.00 64 1003.1
20260509053528 46 321 0.0 0.9 0.00 0.00 0.00 64 1003.1
20260509053451 46 321 0.0 0.0 0.00 0.00 0.00 64 1003.1
20260509053307 46 321 0.0 0.0 0.00 0.00 0.00 63 1003.1
20260509053212 46 321 0.0 0.0 0.00 0.00 0.00 63 1003.1
20260509053138 47 321 0.0 0.0 0.00 0.00 0.00 62 1003.1
20260509053024 47 321 0.0 0.0 0.00 0.00 0.00 62 1003.1
20260509052928 47 321 0.0 0.0 0.00 0.00 0.00 62 1003.1
20260509052853 47 321 0.0 0.0 0.00 0.00 0.00 62 1003.1
20260509052709 47 321 0.0 0.0 0.00 0.00 0.00 61 1003.1
20260509052635 47 321 0.0 0.0 0.00 0.00 0.00 60 1003.1
20260509052518 47 321 0.0 0.0 0.00 0.00 0.00 60 1003.1
20260509052407 47 321 0.0 0.0 0.00 0.00 0.00 60 1003.1
20260509052331 47 321 0.0 0.0 0.00 0.00 0.00 60 1003.2
20260509052206 47 321 0.0 0.0 0.00 0.00 0.00 59 1003.2
20260509052111 47 321 0.0 0.0 0.00 0.00 0.00 58 1003.2
20260509052035 47 321 0.0 0.0 0.00 0.00 0.00 58 1003.3
20260509051919 47 321 0.0 0.9 0.00 0.00 0.00 58 1003.2
20260509051824 47 321 0.0 0.9 0.00 0.00 0.00 57 1003.2
20260509051733 48 321 0.0 0.9 0.00 0.00 0.00 58 1003.1
20260509051636 48 321 0.0 0.9 0.00 0.00 0.00 57 1003.1
20260509051519 48 321 0.0 1.7 0.00 0.00 0.00 57 1003.2
20260509051443 48 321 0.0 1.7 0.00 0.00 0.00 58 1003.1
20260509051326 48 321 0.0 1.7 0.00 0.00 0.00 57 1003.2
20260509051231 48 321 0.0 1.7 0.00 0.00 0.00 57 1003.2
20260509051107 48 321 0.9 1.7 0.00 0.00 0.00 56 1003.1
20260509051031 48 321 0.9 1.7 0.00 0.00 0.00 54 1003.2
20260509050919 48 321 0.9 1.7 0.00 0.00 0.00 54 1003.1
20260509050823 48 321 0.9 1.7 0.00 0.00 0.00 54 1003.2
20260509050725 48 321 0.9 1.7 0.00 0.00 0.00 54 1003.2
20260509050629 49 321 0.9 1.7 0.00 0.00 0.00 54 1003.1
20260509050512 49 321 0.9 1.7 0.00 0.00 0.00 54 1003.2
20260509050416 49 321 0.0 1.7 0.00 0.00 0.00 54 1003.2
20260509050319 49 321 0.0 0.0 0.00 0.00 0.00 54 1003.2
20260509050228 49 321 0.0 0.9 0.00 0.00 0.00 54 1003.4
20260509050151 49 321 0.0 0.9 0.00 0.00 0.00 54 1003.4
20260509050008 49 321 0.0 0.9 0.00 0.00 0.00 53 1003.5
20260509045912 50 321 0.0 0.9 0.00 0.00 0.00 53 1003.4
20260509045817 50 321 0.0 0.9 0.00 0.00 0.00 53 1003.4
20260509045720 50 321 0.0 0.9 0.00 0.00 0.00 52 1003.4
20260509045609 50 321 0.0 1.7 0.00 0.00 0.00 53 1003.4
20260509045534 50 321 0.0 1.7 0.00 0.00 0.00 53 1003.4
20260509045417 50 321 0.0 1.7 0.00 0.00 0.00 54 1003.4
20260509045322 51 321 0.0 1.7 0.00 0.00 0.00 54 1003.4
20260509045227 51 321 0.9 1.7 0.00 0.00 0.00 54 1003.4
20260509045152 51 321 0.9 1.7 0.00 0.00 0.00 54 1003.4
20260509045009 51 321 0.9 1.7 0.00 0.00 0.00 53 1003.4
20260509044918 51 321 0.9 1.7 0.00 0.00 0.00 52 1003.5
20260509044821 51 321 0.9 1.7 0.00 0.00 0.00 51 1003.5
20260509044706 52 321 0.0 1.7 0.00 0.00 0.00 52 1003.5
20260509044610 52 321 0.0 1.7 0.00 0.00 0.00 51 1003.4
20260509044516 52 321 0.0 1.7 0.00 0.00 0.00 50 1003.4
20260509044420 52 321 0.0 1.7 0.00 0.00 0.00 49 1003.4
20260509044308 52 321 0.9 1.7 0.00 0.00 0.00 49 1003.5
20260509044211 53 321 0.9 1.7 0.00 0.00 0.00 50 1003.4
20260509044116 53 321 0.9 2.6 0.00 0.00 0.00 50 1003.5
20260509044040 53 321 1.7 2.6 0.00 0.00 0.00 49 1003.5
20260509043923 53 321 1.7 2.6 0.00 0.00 0.00 48 1003.4
20260509043807 53 321 1.7 2.6 0.00 0.00 0.00 48 1003.5
20260509043737 53 321 1.7 2.6 0.00 0.00 0.00 47 1003.6
20260509043642 53 321 1.7 2.6 0.00 0.00 0.00 46 1003.5
20260509043525 53 321 1.7 4.3 0.00 0.00 0.00 47 1003.5
20260509043428 54 321 1.7 4.3 0.00 0.00 0.00 47 1003.5
20260509043311 54 321 1.7 4.3 0.00 0.00 0.00 47 1003.6
20260509043216 54 321 1.7 4.3 0.00 0.00 0.00 46 1003.5
20260509043140 54 321 1.7 4.3 0.00 0.00 0.00 47 1003.5
20260509043008 54 321 1.7 4.3 0.00 0.00 0.00 45 1003.6
20260509042931 54 321 1.7 4.3 0.00 0.00 0.00 45 1003.5
20260509042815 54 321 2.6 4.3 0.00 0.00 0.00 44 1003.5
20260509042740 54 307 2.6 4.3 0.00 0.00 0.00 44 1003.6
20260509042623 54 322 2.6 3.5 0.00 0.00 0.00 44 1003.6
20260509042507 55 321 2.6 3.5 0.00 0.00 0.00 43 1003.6
20260509042412 55 321 2.6 4.3 0.00 0.00 0.00 43 1003.6
20260509042320 55 315 2.6 4.3 0.00 0.00 0.00 44 1003.6
20260509042245 55 316 1.7 4.3 0.00 0.00 0.00 43 1003.6
20260509042110 55 305 1.7 4.3 0.00 0.00 0.00 43 1003.5
20260509042013 55 301 2.6 4.3 0.00 0.00 0.00 43 1003.5
20260509041917 56 302 1.7 4.3 0.00 0.00 0.00 44 1003.5
20260509041839 56 302 1.7 5.2 0.00 0.00 0.00 42 1003.5
20260509041722 56 302 1.7 5.2 0.00 0.00 0.00 42 1003.7
20260509041610 56 302 2.6 5.2 0.00 0.00 0.00 42 1003.7
20260509041514 56 337 2.6 5.2 0.00 0.00 0.00 41 1003.8
20260509041420 56 333 2.6 5.2 0.00 0.00 0.00 42 1003.8
20260509041323 56 311 2.6 5.2 0.00 0.00 0.00 42 1003.7
20260509041207 56 326 2.6 7.0 0.00 0.00 0.00 41 1003.8
20260509041112 57 314 2.6 7.0 0.00 0.00 0.00 41 1003.8
20260509041022 57 298 2.6 7.0 0.00 0.00 0.00 42 1003.9
20260509040906 57 330 2.6 7.0 0.00 0.00 0.00 40 1003.9
20260509040830 57 315 2.6 7.0 0.00 0.00 0.00 42 1003.9
20260509040713 57 330 2.6 7.0 0.00 0.00 0.00 39 1003.9
20260509040637 57 342 3.5 7.0 0.00 0.00 0.00 40 1003.9
20260509040521 57 348 3.5 7.0 0.00 0.00 0.00 39 1003.9
20260509040409 57 334 2.6 7.0 0.00 0.00 0.00 40 1003.9
20260509040312 57 345 2.6 7.0 0.00 0.00 0.00 40 1004.0
20260509040217 57 327 3.5 7.0 0.00 0.00 0.00 39 1004.0
20260509040121 57 348 3.5 7.0 0.00 0.00 0.00 39 1003.9
20260509040024 57 344 3.5 7.0 0.00 0.00 0.00 39 1003.9
20260509035909 57 355 3.5 8.7 0.00 0.00 0.00 40 1004.0
20260509035818 57 342 3.5 8.7 0.00 0.00 0.00 39 1003.9
20260509035723 57 338 4.3 8.7 0.00 0.00 0.00 39 1003.9
20260509035628 58 355 4.3 8.7 0.00 0.00 0.00 39 1003.9
20260509035513 58 5 3.5 8.7 0.00 0.00 0.00 39 1003.8
20260509035420 58 346 4.3 8.7 0.00 0.00 0.00 38 1003.8
20260509035324 58 341 4.3 8.7 0.00 0.00 0.00 38 1003.8
20260509035230 58 15 5.2 8.7 0.00 0.00 0.00 38 1003.8
20260509035118 58 350 4.3 8.7 0.00 0.00 0.00 38 1003.9
20260509035023 58 346 3.5 8.7 0.00 0.00 0.00 38 1003.9
20260509034929 58 360 4.3 11.3 0.00 0.00 0.00 39 1003.8
20260509034813 58 302 4.3 11.3 0.00 0.00 0.00 38 1003.8
20260509034739 58 344 4.3 11.3 0.00 0.00 0.00 38 1003.8
20260509034642 58 340 3.5 11.3 0.00 0.00 0.00 38 1003.7
20260509034525 58 346 3.5 11.3 0.00 0.00 0.00 38 1003.8
20260509034415 58 320 4.3 11.3 0.00 0.00 0.00 38 1003.8
20260509034322 58 349 5.2 11.3 0.00 0.00 0.00 38 1003.8
20260509034245 58 329 6.1 11.3 0.00 0.00 0.00 38 1003.8
20260509034108 58 338 5.2 11.3 0.00 0.00 0.00 38 1003.7
20260509034032 58 341 5.2 9.6 0.00 0.00 0.00 38 1003.7
20260509033915 58 340 5.2 9.6 0.00 0.00 0.00 38 1003.7
20260509033839 58 339 4.3 9.6 0.00 0.00 0.00 38 1003.7
20260509033725 58 334 4.3 9.6 0.00 0.00 0.00 38 1003.7
20260509033609 58 331 4.3 9.6 0.00 0.00 0.00 38 1003.7
20260509033513 59 40 4.3 7.8 0.00 0.00 0.00 39 1003.7
20260509033418 58 12 4.3 7.8 0.00 0.00 0.00 38 1003.7
20260509033321 59 360 4.3 7.8 0.00 0.00 0.00 37 1003.6
20260509033225 59 340 4.3 7.8 0.00 0.00 0.00 38 1003.7
20260509033112 59 334 4.3 7.8 0.00 0.00 0.00 37 1003.7
20260509033036 59 355 4.3 7.8 0.00 0.00 0.00 38 1003.7
20260509032939 59 360 5.2 7.8 0.00 0.00 0.00 38 1003.6
20260509032822 59 360 4.3 7.8 0.00 0.00 0.00 38 1003.6
20260509032746 59 341 3.5 7.8 0.00 0.00 0.00 37 1003.6
20260509032608 59 355 4.3 7.8 0.00 0.00 0.00 37 1003.6
20260509032511 59 329 5.2 7.8 0.00 0.00 0.00 37 1003.6
20260509032415 59 347 5.2 7.8 0.00 0.00 0.00 37 1003.6
20260509032323 59 323 5.2 8.7 0.00 0.00 0.00 37 1003.6
20260509032227 59 360 5.2 8.7 0.00 0.00 0.00 37 1003.6
20260509032151 59 333 4.3 8.7 0.00 0.00 0.00 38 1003.6
20260509032006 59 341 4.3 8.7 0.00 0.00 0.00 37 1003.6
20260509031908 59 340 5.2 8.7 0.00 0.00 0.00 38 1003.6
20260509031832 59 336 5.2 8.7 0.00 0.00 0.00 37 1003.6
20260509031714 59 350 5.2 8.7 0.00 0.00 0.00 37 1003.7
20260509031623 59 343 5.2 8.7 0.00 0.00 0.00 38 1003.6
20260509031526 59 319 5.2 8.7 0.00 0.00 0.00 38 1003.6
20260509031409 60 347 5.2 8.7 0.00 0.00 0.00 37 1003.6
20260509031314 60 330 5.2 8.7 0.00 0.00 0.00 37 1003.6
20260509031218 60 342 5.2 8.7 0.00 0.00 0.00 38 1003.6
20260509031122 60 319 3.5 10.4 0.00 0.00 0.00 38 1003.5
20260509031029 60 9 5.2 10.4 0.00 0.00 0.00 37 1003.5
20260509030910 60 360 6.1 10.4 0.00 0.00 0.00 36 1003.6
20260509030812 60 5 5.2 11.3 0.00 0.00 0.00 37 1003.5
20260509030715 60 18 4.3 11.3 0.00 0.00 0.00 37 1003.5
20260509030616 60 355 4.3 11.3 0.00 0.00 0.00 36 1003.5
20260509030519 60 355 5.2 11.3 0.00 0.00 0.00 37 1003.5
20260509030423 60 324 6.1 11.3 0.00 0.00 0.00 36 1003.5
20260509030349 60 5 6.1 11.3 0.00 0.00 0.00 36 1003.5
20260509030253 60 32 7.0 11.3 0.00 0.00 0.00 36 1003.5
20260509030107 60 327 6.1 11.3 0.00 0.00 0.00 36 1003.4
20260509030013 60 355 5.2 12.2 0.00 0.00 0.00 36 1003.5
20260509025914 60 343 5.2 12.2 0.00 0.00 0.00 36 1003.5
20260509025818 60 12 5.2 12.2 0.00 0.00 0.00 37 1003.5
20260509025722 60 345 5.2 12.2 0.00 0.00 0.00 36 1003.4
20260509025628 61 9 7.0 12.2 0.00 0.00 0.00 36 1003.5
20260509025531 61 25 7.0 12.2 0.00 0.00 0.00 36 1003.5
20260509025409 61 360 7.0 12.2 0.00 0.00 0.00 36 1003.5
20260509025310 61 355 7.0 12.2 0.00 0.00 0.00 36 1003.4
20260509025214 61 346 5.2 13.0 0.00 0.00 0.00 36 1003.4
20260509025119 61 323 4.3 13.0 0.00 0.00 0.00 36 1003.4
20260509025007 61 51 6.1 13.0 0.00 0.00 0.00 36 1003.4
20260509024909 61 360 7.0 13.0 0.00 0.00 0.00 36 1003.5
20260509024832 61 321 7.8 13.9 0.00 0.00 0.00 36 1003.4
20260509024707 61 18 7.8 13.9 0.00 0.00 0.00 36 1003.4
20260509024612 61 355 7.8 13.9 0.00 0.00 0.00 36 1003.4
20260509024516 61 360 7.8 13.9 0.00 0.00 0.00 36 1003.3
20260509024440 61 311 7.8 13.9 0.00 0.00 0.00 36 1003.3
20260509024328 61 323 7.0 13.9 0.00 0.00 0.00 36 1003.3
20260509024252 61 11 6.1 13.9 0.00 0.00 0.00 36 1003.3
20260509024108 61 331 7.8 13.9 0.00 0.00 0.00 36 1003.3
20260509024013 61 355 7.8 13.9 0.00 0.00 0.00 36 1003.3
20260509023917 61 335 7.8 13.9 0.00 0.00 0.00 36 1003.3
20260509023819 61 339 7.8 13.9 0.00 0.00 0.00 36 1003.3
20260509023708 62 15 7.8 13.0 0.00 0.00 0.00 37 1003.2
20260509023631 62 317 7.8 13.0 0.00 0.00 0.00 36 1003.3
20260509023515 62 360 7.8 13.0 0.00 0.00 0.00 37 1003.3
20260509023418 62 335 7.0 13.9 0.00 0.00 0.00 37 1003.2
20260509023323 62 348 7.0 13.9 0.00 0.00 0.00 36 1003.3
20260509023207 62 330 6.1 13.9 0.00 0.00 0.00 36 1003.2
20260509023117 62 336 7.0 13.9 0.00 0.00 0.00 37 1003.2
20260509023020 62 355 6.1 13.9 0.00 0.00 0.00 36 1003.2
20260509022925 62 344 5.2 18.2 0.00 0.00 0.00 36 1003.2
20260509022849 62 31 4.3 18.2 0.00 0.00 0.00 36 1003.1
20260509022706 63 347 8.7 18.2 0.00 0.00 0.00 35 1003.1
20260509022630 63 325 9.6 18.2 0.00 0.00 0.00 35 1003.0
20260509022508 63 26 9.6 18.2 0.00 0.00 0.00 35 1003.2
20260509022417 63 344 10.4 18.2 0.00 0.00 0.00 35 1003.1
20260509022321 63 349 10.4 18.2 0.00 0.00 0.00 35 1003.1
20260509022226 63 349 12.2 18.2 0.00 0.00 0.00 35 1003.1
20260509022129 63 355 13.0 18.2 0.00 0.00 0.00 35 1003.1
20260509022054 63 347 12.2 18.2 0.00 0.00 0.00 35 1003.2
20260509021907 63 11 13.0 18.2 0.00 0.00 0.00 35 1003.1
20260509021816 63 350 13.0 18.2 0.00 0.00 0.00 35 1003.0
20260509021721 63 360 12.2 18.2 0.00 0.00 0.00 36 1003.0
20260509021626 63 351 13.0 18.2 0.00 0.00 0.00 36 1003.0
20260509021529 63 14 10.4 18.2 0.00 0.00 0.00 36 1003.0
20260509021406 63 5 8.7 18.2 0.00 0.00 0.00 36 1003.0
20260509021332 63 41 9.6 20.0 0.00 0.00 0.00 36 1003.0
20260509021213 63 329 9.6 20.0 0.00 0.00 0.00 36 1003.0
20260509021122 64 355 10.4 20.0 0.00 0.00 0.00 36 1002.8
20260509021027 64 336 10.4 20.0 0.00 0.00 0.00 36 1002.8
20260509020930 64 355 11.3 20.0 0.00 0.00 0.00 36 1002.9
20260509020831 64 13 11.3 20.0 0.00 0.00 0.00 36 1002.8
20260509020707 64 20 10.4 20.0 0.00 0.00 0.00 36 1002.7
20260509020611 64 5 11.3 20.0 0.00 0.00 0.00 35 1002.7
20260509020536 64 360 13.0 20.0 0.00 0.00 0.00 35 1002.7
20260509020440 64 340 12.2 17.4 0.00 0.00 0.00 35 1002.6
20260509020306 64 5 11.3 17.4 0.00 0.00 0.00 35 1002.7
20260509020210 64 5 9.6 16.5 0.00 0.00 0.00 35 1002.6
20260509020114 64 17 10.4 16.5 0.00 0.00 0.00 35 1002.5
20260509020017 64 355 10.4 16.5 0.00 0.00 0.00 35 1002.6
20260509015941 64 5 9.6 15.6 0.00 0.00 0.00 35 1002.5
20260509015845 64 347 7.8 15.6 0.00 0.00 0.00 35 1002.5
20260509015713 64 360 8.7 16.5 0.00 0.00 0.00 35 1002.5
20260509015618 64 360 10.4 16.5 0.00 0.00 0.00 35 1002.4
20260509015522 64 360 10.4 16.5 0.00 0.00 0.00 35 1002.5
20260509015427 64 345 9.6 16.5 0.00 0.00 0.00 35 1002.4
20260509015309 64 360 8.7 16.5 0.00 0.00 0.00 35 1002.4
20260509015214 64 338 7.8 16.5 0.00 0.00 0.00 35 1002.3
20260509015117 64 17 8.7 19.1 0.00 0.00 0.00 34 1002.3
20260509015024 64 5 8.7 19.1 0.00 0.00 0.00 34 1002.3
20260509014909 64 29 8.7 19.1 0.00 0.00 0.00 35 1002.3
20260509014834 64 15 9.6 19.1 0.00 0.00 0.00 35 1002.2
20260509014710 64 333 9.6 19.1 0.00 0.00 0.00 35 1002.2
20260509014635 64 21 8.7 19.1 0.00 0.00 0.00 34 1002.2
20260509014519 64 355 8.7 19.1 0.00 0.00 0.00 33 1002.2
20260509014407 64 15 11.3 19.1 0.00 0.00 0.00 33 1002.2
20260509014331 64 338 11.3 19.1 0.00 0.00 0.00 33 1002.2
20260509014234 64 5 10.4 14.8 0.00 0.00 0.00 33 1002.2
20260509014109 64 350 8.7 13.9 0.00 0.00 0.00 33 1002.2
20260509014034 64 340 5.2 11.3 0.00 0.00 0.00 33 1002.0
20260509013916 64 326 4.3 11.3 0.00 0.00 0.00 33 1002.1
20260509013820 64 303 3.5 11.3 0.00 0.00 0.00 33 1002.0
20260509013745 64 319 4.3 11.3 0.00 0.00 0.00 33 1002.0
20260509013613 65 344 3.5 11.3 0.00 0.00 0.00 33 1002.0
20260509013516 65 338 3.5 11.3 0.00 0.00 0.00 33 1002.0
20260509013440 65 330 4.3 11.3 0.00 0.00 0.00 32 1001.9
20260509013344 65 334 5.2 11.3 0.00 0.00 0.00 32 1002.0
20260509013226 65 350 5.2 11.3 0.00 0.00 0.00 32 1002.0
20260509013149 65 338 4.3 11.3 0.00 0.00 0.00 33 1001.9
20260509013006 65 336 5.2 11.3 0.00 0.00 0.00 32 1002.0
20260509012911 65 341 4.3 11.3 0.00 0.00 0.00 33 1001.9
20260509012819 65 5 4.3 12.2 0.00 0.00 0.00 32 1001.9
20260509012743 65 10 4.3 12.2 0.00 0.00 0.00 33 1002.0
20260509012625 65 355 5.2 12.2 0.00 0.00 0.00 32 1001.9
20260509012528 65 13 6.1 12.2 0.00 0.00 0.00 31 1001.9
20260509012406 65 329 7.0 12.2 0.00 0.00 0.00 31 1001.9
20260509012331 65 355 6.1 12.2 0.00 0.00 0.00 32 1002.0
20260509012234 65 338 6.1 12.2 0.00 0.00 0.00 32 1001.9
20260509012122 65 325 6.1 12.2 0.00 0.00 0.00 31 1001.9
20260509012007 65 329 6.1 11.3 0.00 0.00 0.00 31 1001.9
20260509011912 65 333 7.0 11.3 0.00 0.00 0.00 31 1001.9
20260509011817 65 340 7.0 11.3 0.00 0.00 0.00 31 1001.8
20260509011740 66 319 6.1 11.3 0.00 0.00 0.00 32 1001.8
20260509011624 66 348 4.3 11.3 0.00 0.00 0.00 31 1001.9
20260509011513 66 342 2.6 11.3 0.00 0.00 0.00 31 1001.8
20260509011418 66 321 3.5 11.3 0.00 0.00 0.00 32 1001.8
20260509011342 66 360 5.2 11.3 0.00 0.00 0.00 31 1001.8
20260509011225 66 337 6.1 11.3 0.00 0.00 0.00 31 1001.8
20260509011130 66 355 4.3 10.4 0.00 0.00 0.00 32 1001.8
20260509011033 66 15 4.3 10.4 0.00 0.00 0.00 31 1001.8
20260509010936 66 355 4.3 10.4 0.00 0.00 0.00 32 1001.8
20260509010839 66 286 4.3 10.4 0.00 0.00 0.00 30 1001.8
20260509010722 66 34 4.3 10.4 0.00 0.00 0.00 30 1001.8
20260509010651 66 350 3.5 10.4 0.00 0.00 0.00 30 1001.7
20260509010508 67 310 6.1 13.0 0.00 0.00 0.00 31 1001.8
20260509010431 67 323 6.1 13.0 0.00 0.00 0.00 31 1001.8
20260509010308 67 340 5.2 13.0 0.00 0.00 0.00 30 1001.8
20260509010213 67 338 4.3 13.0 0.00 0.00 0.00 30 1001.7
20260509010137 67 340 5.2 13.0 0.00 0.00 0.00 30 1001.7
20260509010021 67 5 6.1 13.0 0.00 0.00 0.00 30 1001.7
20260509005910 67 355 6.1 13.9 0.00 0.00 0.00 30 1001.7
20260509005834 67 5 6.1 13.9 0.00 0.00 0.00 30 1001.7
20260509005709 67 5 7.0 13.9 0.00 0.00 0.00 30 1001.6
20260509005614 67 333 7.0 13.9 0.00 0.00 0.00 30 1001.7
20260509005538 67 38 5.2 13.9 0.00 0.00 0.00 30 1001.7
20260509005442 67 327 3.5 13.9 0.00 0.00 0.00 32 1001.7
20260509005309 67 333 4.3 13.9 0.00 0.00 0.00 30 1001.7
20260509005213 67 315 5.2 13.9 0.00 0.00 0.00 29 1001.7
20260509005139 67 9 7.0 13.9 0.00 0.00 0.00 29 1001.7
20260509005041 67 333 6.1 13.9 0.00 0.00 0.00 29 1001.6
20260509004924 67 344 5.2 11.3 0.00 0.00 0.00 30 1001.7
20260509004827 68 328 7.8 11.3 0.00 0.00 0.00 29 1001.6
20260509004711 68 348 7.8 13.0 0.00 0.00 0.00 28 1001.6
20260509004614 68 350 7.0 13.0 0.00 0.00 0.00 29 1001.7
20260509004522 68 326 7.0 13.9 0.00 0.00 0.00 29 1001.7
20260509004425 68 355 7.0 13.9 0.00 0.00 0.00 28 1001.6
20260509004330 68 360 6.1 13.9 0.00 0.00 0.00 29 1001.7
20260509004206 68 328 4.3 13.9 0.00 0.00 0.00 29 1001.6
20260509004111 68 350 6.1 13.9 0.00 0.00 0.00 29 1001.6
20260509004015 68 346 7.0 13.9 0.00 0.00 0.00 29 1001.6
20260509003923 68 337 7.8 13.9 0.00 0.00 0.00 28 1001.6
20260509003828 68 5 8.7 13.9 0.00 0.00 0.00 29 1001.6
20260509003731 68 309 8.7 13.9 0.00 0.00 0.00 30 1001.6
20260509003608 68 284 7.8 13.9 0.00 0.00 0.00 29 1001.5
20260509003513 68 324 7.8 13.9 0.00 0.00 0.00 29 1001.6
20260509003438 68 323 7.0 17.4 0.00 0.00 0.00 30 1001.5
20260509003341 68 329 5.2 17.4 0.00 0.00 0.00 30 1001.5
20260509003228 68 13 7.0 17.4 0.00 0.00 0.00 30 1001.5
20260509003106 68 360 7.0 17.4 0.00 0.00 0.00 30 1001.6
20260509003010 68 325 6.1 17.4 0.00 0.00 0.00 30 1001.6
20260509002914 68 326 7.8 17.4 0.00 0.00 0.00 30 1001.6
20260509002819 68 331 8.7 17.4 0.00 0.00 0.00 29 1001.5
20260509002723 68 305 8.7 17.4 0.00 0.00 0.00 29 1001.5
20260509002632 68 321 9.6 17.4 0.00 0.00 0.00 29 1001.4
20260509002508 68 345 9.6 15.6 0.00 0.00 0.00 29 1001.6
20260509002413 68 308 10.4 15.6 0.00 0.00 0.00 28 1001.5
20260509002317 68 311 10.4 15.6 0.00 0.00 0.00 30 1001.5
20260509002221 68 322 7.8 13.9 0.00 0.00 0.00 29 1001.6
20260509002125 68 337 5.2 10.4 0.00 0.00 0.00 32 1001.7
20260509002033 69 360 3.5 9.6 0.00 0.00 0.00 31 1001.6
20260509001917 68 316 3.5 10.4 0.00 0.00 0.00 30 1001.5
20260509001821 69 360 3.5 10.4 0.00 0.00 0.00 31 1001.7
20260509001725 69 338 4.3 11.3 0.00 0.00 0.00 30 1001.5
20260509001630 69 333 3.5 11.3 0.00 0.00 0.00 32 1001.6
20260509001514 69 321 3.5 13.9 0.00 0.00 0.00 32 1001.6
20260509001419 68 298 4.3 13.9 0.00 0.00 0.00 30 1001.7
20260509001307 68 350 6.1 13.9 0.00 0.00 0.00 31 1001.6
20260509001231 68 355 6.1 13.9 0.00 0.00 0.00 31 1001.7
20260509001108 68 329 7.0 13.9 0.00 0.00 0.00 30 1001.7
20260509001013 68 320 6.1 13.9 0.00 0.00 0.00 32 1001.6
20260509000937 68 319 6.1 13.9 0.00 0.00 0.00 32 1001.6
20260509000820 68 330 6.1 13.9 0.00 0.00 0.00 31 1001.6
20260509000708 68 327 5.2 13.9 0.00 0.00 0.00 32 1001.7
20260509000612 68 317 3.5 12.2 0.00 0.00 0.00 31 1001.6
20260509000537 68 338 4.3 12.2 0.00 0.00 0.00 30 1001.6
20260509000420 69 348 7.0 12.2 0.00 0.00 0.00 30 1001.6
20260509000326 69 318 8.7 12.2 0.00 0.00 0.00 31 1001.7
20260509000229 69 323 7.0 12.2 0.00 0.00 0.00 31 1001.6
20260509000111 69 5 4.3 10.4 0.00 0.00 0.00 31 1001.6
20260509000020 69 300 4.3 10.4 0.00 0.00 0.00 32 1001.7
20260508235924 69 312 5.2 10.4 0.00 0.00 0.00 30 1001.6
20260508235828 69 355 5.2 10.4 0.00 0.00 0.00 30 1001.7
20260508235752 69 348 6.1 11.3 0.00 0.00 0.00 31 1001.7
20260508235607 69 346 6.1 11.3 0.00 0.00 0.00 31 1001.7
20260508235511 69 337 5.2 11.3 0.00 0.00 0.00 31 1001.7
20260508235420 69 350 5.2 11.3 0.00 0.00 0.00 30 1001.6
20260508235345 69 348 5.2 11.3 0.00 0.00 0.00 32 1001.6
20260508235229 69 350 4.3 11.3 0.00 0.00 0.00 31 1001.7
20260508235106 69 25 4.3 11.3 0.00 0.00 0.00 31 1001.7
20260508235011 69 5 6.1 11.3 0.00 0.00 0.00 31 1001.6
20260508234916 69 350 7.8 11.3 0.00 0.00 0.00 31 1001.6
20260508234820 69 355 7.8 11.3 0.00 0.00 0.00 30 1001.5
20260508234729 69 15 7.0 10.4 0.00 0.00 0.00 30 1001.5
20260508234606 69 24 6.1 9.6 0.00 0.00 0.00 30 1001.6
20260508234510 69 360 5.2 9.6 0.00 0.00 0.00 31 1001.6
20260508234414 69 5 4.3 9.6 0.00 0.00 0.00 31 1001.6
20260508234319 69 27 3.5 9.6 0.00 0.00 0.00 31 1001.6
20260508234207 69 38 4.3 9.6 0.00 0.00 0.00 33 1001.6
20260508234131 69 5 5.2 9.6 0.00 0.00 0.00 31 1001.6
20260508234035 69 323 6.1 12.2 0.00 0.00 0.00 30 1001.6
20260508233918 69 317 6.1 12.2 0.00 0.00 0.00 30 1001.6
20260508233821 69 355 5.2 12.2 0.00 0.00 0.00 31 1001.6
20260508233706 69 325 4.3 12.2 0.00 0.00 0.00 31 1001.6
20260508233630 69 335 4.3 12.2 0.00 0.00 0.00 31 1001.6
20260508233513 69 309 5.2 12.2 0.00 0.00 0.00 31 1001.6
20260508233421 69 339 6.1 13.9 0.00 0.00 0.00 29 1001.5
20260508233325 69 322 7.8 13.9 0.00 0.00 0.00 30 1001.6
20260508233249 69 323 7.8 13.9 0.00 0.00 0.00 30 1001.7
20260508233106 69 334 6.1 13.9 0.00 0.00 0.00 32 1001.7
20260508233009 69 349 5.2 13.9 0.00 0.00 0.00 31 1001.7
20260508232914 69 360 7.0 15.6 0.00 0.00 0.00 31 1001.7
20260508232817 69 319 6.1 15.6 0.00 0.00 0.00 31 1001.7
20260508232724 69 295 7.8 15.6 0.00 0.00 0.00 32 1001.7
20260508232629 69 285 7.8 18.2 0.00 0.00 0.00 30 1001.7
20260508232533 69 336 7.8 18.2 0.00 0.00 0.00 30 1001.6
20260508232410 69 315 8.7 18.2 0.00 0.00 0.00 31 1001.7
20260508232335 69 339 8.7 18.2 0.00 0.00 0.00 30 1001.8
20260508232238 70 342 9.6 18.2 0.00 0.00 0.00 30 1001.7
20260508232121 70 319 8.7 18.2 0.00 0.00 0.00 30 1001.7
20260508232030 70 324 7.8 18.2 0.00 0.00 0.00 29 1001.7
20260508231908 70 303 9.6 18.2 0.00 0.00 0.00 30 1001.7
20260508231812 70 321 12.2 18.2 0.00 0.00 0.00 30 1001.7
20260508231716 70 307 11.3 18.2 0.00 0.00 0.00 29 1001.8
20260508231620 69 344 9.6 18.2 0.00 0.00 0.00 30 1001.8
20260508231525 69 342 7.8 14.8 0.00 0.00 0.00 31 1001.8
20260508231414 69 349 6.1 14.8 0.00 0.00 0.00 31 1001.8
20260508231337 69 342 6.1 14.8 0.00 0.00 0.00 32 1001.8
20260508231219 69 355 7.8 14.8 0.00 0.00 0.00 31 1001.8
20260508231143 69 319 10.4 14.8 0.00 0.00 0.00 30 1001.8
20260508231007 69 324 8.7 13.9 0.00 0.00 0.00 32 1001.8
20260508230930 69 327 7.8 13.0 0.00 0.00 0.00 32 1001.7
20260508230834 69 319 7.8 13.0 0.00 0.00 0.00 32 1001.7
20260508230716 69 306 7.8 14.8 0.00 0.00 0.00 31 1001.8
20260508230624 69 327 7.8 14.8 0.00 0.00 0.00 31 1001.8
20260508230508 69 349 7.0 14.8 0.00 0.00 0.00 30 1001.8
20260508230412 69 5 5.2 14.8 0.00 0.00 0.00 30 1001.9
20260508230316 70 280 6.1 14.8 0.00 0.00 0.00 32 1001.9
20260508230219 70 347 6.1 14.8 0.00 0.00 0.00 33 1001.8
20260508230124 70 5 5.2 14.8 0.00 0.00 0.00 31 1001.8
20260508230013 70 342 7.8 14.8 0.00 0.00 0.00 30 1002.0
20260508225917 70 348 8.7 14.8 0.00 0.00 0.00 29 1001.9
20260508225821 70 347 7.0 14.8 0.00 0.00 0.00 31 1001.9
20260508225706 70 302 5.2 10.4 0.00 0.00 0.00 31 1001.8
20260508225610 70 5 5.2 10.4 0.00 0.00 0.00 31 1001.9
20260508225533 70 360 7.0 12.2 0.00 0.00 0.00 32 1001.9
20260508225436 69 321 7.0 12.2 0.00 0.00 0.00 30 1001.8
20260508225323 69 35 5.2 14.8 0.00 0.00 0.00 30 1002.0
20260508225225 69 14 6.1 14.8 0.00 0.00 0.00 30 1001.9
20260508225128 69 11 7.0 14.8 0.00 0.00 0.00 30 1001.8
20260508225010 69 348 6.1 14.8 0.00 0.00 0.00 30 1001.9
20260508224933 69 10 6.1 14.8 0.00 0.00 0.00 31 1001.9
20260508224810 69 307 7.8 14.8 0.00 0.00 0.00 30 1001.8
20260508224718 69 355 7.8 14.8 0.00 0.00 0.00 29 1001.9
20260508224621 69 16 9.6 14.8 0.00 0.00 0.00 30 1001.9
20260508224545 69 355 8.7 14.8 0.00 0.00 0.00 29 1001.8
20260508224430 70 10 6.1 13.9 0.00 0.00 0.00 30 1001.8
20260508224313 69 347 6.1 13.9 0.00 0.00 0.00 31 1001.9
20260508224217 69 325 6.1 13.9 0.00 0.00 0.00 32 1001.9
20260508224122 69 9 7.0 13.9 0.00 0.00 0.00 32 1002.0
20260508224030 69 317 6.1 13.9 0.00 0.00 0.00 32 1002.0
20260508223907 69 355 7.8 13.9 0.00 0.00 0.00 31 1001.9
20260508223811 69 340 7.8 13.9 0.00 0.00 0.00 31 1002.0
20260508223715 69 14 6.1 12.2 0.00 0.00 0.00 30 1001.9
20260508223618 69 5 7.0 12.2 0.00 0.00 0.00 32 1001.9
20260508223521 69 325 7.0 12.2 0.00 0.00 0.00 31 1001.9
20260508223445 69 306 7.0 12.2 0.00 0.00 0.00 30 1001.9
20260508223353 69 305 5.2 12.2 0.00 0.00 0.00 30 1001.9
20260508223208 69 9 5.2 12.2 0.00 0.00 0.00 32 1002.1
20260508223111 69 329 7.0 13.0 0.00 0.00 0.00 31 1002.0
20260508223016 70 341 8.7 13.0 0.00 0.00 0.00 30 1001.9
20260508222920 70 301 7.0 13.0 0.00 0.00 0.00 32 1002.0
20260508222823 70 276 6.1 13.0 0.00 0.00 0.00 31 1002.0
20260508222711 70 355 5.2 14.8 0.00 0.00 0.00 31 1002.0
20260508222615 70 345 4.3 14.8 0.00 0.00 0.00 32 1002.0
20260508222519 70 360 5.2 17.4 0.00 0.00 0.00 33 1002.1
20260508222423 70 12 7.8 19.1 0.00 0.00 0.00 30 1002.1
20260508222308 70 319 7.8 19.1 0.00 0.00 0.00 29 1002.1
20260508222231 70 360 7.0 19.1 0.00 0.00 0.00 30 1002.1
20260508222118 70 360 6.1 19.1 0.00 0.00 0.00 31 1002.1
20260508222023 69 314 7.0 19.1 0.00 0.00 0.00 32 1002.2
20260508221907 70 355 8.7 19.1 0.00 0.00 0.00 29 1002.1
20260508221831 70 313 10.4 19.1 0.00 0.00 0.00 31 1002.1
20260508221714 70 283 13.0 19.1 0.00 0.00 0.00 28 1002.0
20260508221617 70 300 13.0 19.1 0.00 0.00 0.00 29 1002.0
20260508221521 71 293 12.2 18.2 0.00 0.00 0.00 30 1002.2
20260508221409 70 300 8.7 17.4 0.00 0.00 0.00 33 1002.1
20260508221333 70 279 7.8 11.3 0.00 0.00 0.00 29 1002.1
20260508221217 70 360 7.0 13.9 0.00 0.00 0.00 30 1002.1
20260508221120 70 343 6.1 13.9 0.00 0.00 0.00 32 1002.2
20260508221023 69 295 5.2 16.5 0.00 0.00 0.00 33 1002.3
20260508220907 69 327 4.3 17.4 0.00 0.00 0.00 31 1002.2
20260508220816 69 345 6.1 17.4 0.00 0.00 0.00 32 1002.2
20260508220721 69 296 7.0 17.4 0.00 0.00 0.00 30 1002.2
20260508220646 69 304 7.8 17.4 0.00 0.00 0.00 30 1002.2
20260508220509 69 326 8.7 17.4 0.00 0.00 0.00 31 1002.3
20260508220434 69 313 9.6 17.4 0.00 0.00 0.00 31 1002.3
20260508220318 69 301 10.4 17.4 0.00 0.00 0.00 30 1002.3
20260508220209 70 306 12.2 17.4 0.00 0.00 0.00 29 1002.3
20260508220114 70 292 13.0 17.4 0.00 0.00 0.00 29 1002.3
20260508220019 70 311 12.2 17.4 0.00 0.00 0.00 30 1002.2
20260508215943 70 306 9.6 17.4 0.00 0.00 0.00 30 1002.4
20260508215808 70 360 8.7 17.4 0.00 0.00 0.00 29 1002.4
20260508215713 70 297 11.3 17.4 0.00 0.00 0.00 29 1002.3
20260508215618 70 327 11.3 17.4 0.00 0.00 0.00 28 1002.4
20260508215507 71 348 9.6 16.5 0.00 0.00 0.00 29 1002.3
20260508215412 71 341 11.3 16.5 0.00 0.00 0.00 31 1002.4
20260508215316 71 306 11.3 16.5 0.00 0.00 0.00 29 1002.2
20260508215221 72 305 8.7 14.8 0.00 0.00 0.00 30 1002.4
20260508215124 72 286 7.8 15.6 0.00 0.00 0.00 30 1002.4
20260508215012 72 348 9.6 15.6 0.00 0.00 0.00 30 1002.5
20260508214936 71 28 9.6 15.6 0.00 0.00 0.00 28 1002.4
20260508214818 71 355 8.7 15.6 0.00 0.00 0.00 30 1002.4
20260508214742 71 306 7.0 15.6 0.00 0.00 0.00 30 1002.4
20260508214625 71 323 7.0 15.6 0.00 0.00 0.00 32 1002.4
20260508214510 71 322 9.6 15.6 0.00 0.00 0.00 30 1002.5
20260508214414 71 318 10.4 15.6 0.00 0.00 0.00 29 1002.5
20260508214322 71 355 10.4 15.6 0.00 0.00 0.00 31 1002.6
20260508214206 70 315 8.7 14.8 0.00 0.00 0.00 31 1002.7
20260508214131 70 284 8.7 15.6 0.00 0.00 0.00 31 1002.6
20260508214007 70 313 9.6 15.6 0.00 0.00 0.00 30 1002.4
20260508213913 70 329 7.8 15.6 0.00 0.00 0.00 30 1002.5
20260508213837 70 314 7.0 15.6 0.00 0.00 0.00 34 1002.5
20260508213720 70 342 8.7 15.6 0.00 0.00 0.00 32 1002.5
20260508213608 70 339 9.6 15.6 0.00 0.00 0.00 32 1002.5
20260508213512 70 296 9.6 15.6 0.00 0.00 0.00 30 1002.5
20260508213435 70 315 9.6 15.6 0.00 0.00 0.00 29 1002.5
20260508213318 70 305 10.4 15.6 0.00 0.00 0.00 30 1002.7
20260508213222 70 342 9.6 15.6 0.00 0.00 0.00 29 1002.8
20260508213145 70 360 9.6 15.6 0.00 0.00 0.00 29 1002.8
20260508213048 69 329 9.6 15.6 0.00 0.00 0.00 30 1002.7
20260508212914 69 313 9.6 16.5 0.00 0.00 0.00 31 1002.7
20260508212819 69 310 8.7 16.5 0.00 0.00 0.00 32 1002.8
20260508212742 69 327 7.8 16.5 0.00 0.00 0.00 30 1002.7
20260508212625 69 305 10.4 17.4 0.00 0.00 0.00 32 1002.6
20260508212528 69 315 11.3 18.2 0.00 0.00 0.00 30 1002.6
20260508212411 69 300 10.4 18.2 0.00 0.00 0.00 29 1002.6
20260508212334 69 339 10.4 18.2 0.00 0.00 0.00 29 1002.7
20260508212217 69 332 10.4 18.2 0.00 0.00 0.00 29 1002.7
20260508212107 70 283 9.6 18.2 0.00 0.00 0.00 30 1002.8
20260508212010 70 338 11.3 18.2 0.00 0.00 0.00 28 1002.7
20260508211915 70 285 11.3 18.2 0.00 0.00 0.00 28 1002.6
20260508211820 70 347 11.3 18.2 0.00 0.00 0.00 28 1003.2
20260508211742 70 355 11.3 18.2 0.00 0.00 0.00 29 1002.7
20260508211625 70 303 12.2 17.4 0.00 0.00 0.00 28 1002.8
20260508211513 70 333 10.4 17.4 0.00 0.00 0.00 29 1002.7
20260508211416 70 325 10.4 17.4 0.00 0.00 0.00 31 1002.8
20260508211321 70 314 10.4 17.4 0.00 0.00 0.00 29 1002.8
20260508211207 70 360 9.6 17.4 0.00 0.00 0.00 29 1002.9
20260508211110 70 343 10.4 17.4 0.00 0.00 0.00 31 1002.8
20260508211015 70 341 11.3 17.4 0.00 0.00 0.00 29 1002.8
20260508210925 70 300 11.3 16.5 0.00 0.00 0.00 30 1002.8
20260508210809 70 290 10.4 16.5 0.00 0.00 0.00 30 1002.9
20260508210732 70 296 8.7 16.5 0.00 0.00 0.00 30 1002.6
20260508210609 70 314 10.4 16.5 0.00 0.00 0.00 31 1002.8
20260508210514 70 318 11.3 16.5 0.00 0.00 0.00 29 1003.0
20260508210417 70 315 9.6 16.5 0.00 0.00 0.00 29 1003.0
20260508210343 70 342 7.8 15.6 0.00 0.00 0.00 31 1003.0
20260508210226 70 326 6.1 15.6 0.00 0.00 0.00 33 1003.0
20260508210109 70 311 7.8 17.4 0.00 0.00 0.00 32 1003.0
20260508210012 70 300 8.7 17.4 0.00 0.00 0.00 31 1003.0
20260508205915 70 285 8.7 19.1 0.00 0.00 0.00 30 1003.0
20260508205839 70 275 9.6 19.1 0.00 0.00 0.00 30 1003.1
20260508205720 70 298 8.7 19.1 0.00 0.00 0.00 31 1003.1
20260508205626 70 285 10.4 19.1 0.00 0.00 0.00 30 1003.2
20260508205510 70 306 12.2 19.1 0.00 0.00 0.00 30 1003.2
20260508205412 70 311 11.3 19.1 0.00 0.00 0.00 29 1003.1
20260508205315 70 5 11.3 19.1 0.00 0.00 0.00 30 1003.3
20260508205218 70 11 11.3 19.1 0.00 0.00 0.00 31 1003.3
20260508205141 69 300 11.3 19.1 0.00 0.00 0.00 33 1003.2
20260508205006 69 298 6.1 13.0 0.00 0.00 0.00 33 1003.2
20260508204911 69 304 6.1 13.0 0.00 0.00 0.00 29 1003.3
20260508204813 69 15 8.7 13.0 0.00 0.00 0.00 30 1003.3
20260508204716 69 345 9.6 13.9 0.00 0.00 0.00 31 1003.2
20260508204619 69 294 9.6 13.9 0.00 0.00 0.00 31 1003.2
20260508204522 69 340 7.0 13.9 0.00 0.00 0.00 32 1003.3
20260508204444 68 11 6.1 13.9 0.00 0.00 0.00 31 1003.3
20260508204331 68 13 5.2 13.9 0.00 0.00 0.00 30 1003.4
20260508204206 68 335 7.8 13.9 0.00 0.00 0.00 31 1003.4
20260508204130 68 343 10.4 13.9 0.00 0.00 0.00 29 1003.4
20260508204011 68 338 10.4 13.9 0.00 0.00 0.00 30 1003.5
20260508203915 68 344 8.7 13.0 0.00 0.00 0.00 29 1003.5
20260508203818 68 5 7.8 13.0 0.00 0.00 0.00 30 1003.5
20260508203720 68 323 9.6 13.0 0.00 0.00 0.00 32 1003.5
20260508203606 69 320 11.3 13.0 0.00 0.00 0.00 30 1003.5
20260508203510 69 301 9.6 15.6 0.00 0.00 0.00 32 1003.5
20260508203413 69 298 7.8 17.4 0.00 0.00 0.00 30 1003.5
20260508203336 69 309 7.8 17.4 0.00 0.00 0.00 31 1003.6
20260508203219 69 336 7.0 17.4 0.00 0.00 0.00 30 1003.6
20260508203122 69 344 7.8 17.4 0.00 0.00 0.00 31 1003.6
20260508203010 69 338 7.8 17.4 0.00 0.00 0.00 31 1003.6
20260508202932 69 335 7.0 17.4 0.00 0.00 0.00 31 1003.5
20260508202808 69 296 9.6 17.4 0.00 0.00 0.00 29 1003.4
20260508202731 69 290 12.2 17.4 0.00 0.00 0.00 29 1003.6
20260508202613 69 278 11.3 17.4 0.00 0.00 0.00 30 1003.6
20260508202515 69 293 8.7 14.8 0.00 0.00 0.00 33 1003.6
20260508202418 69 341 8.7 13.0 0.00 0.00 0.00 29 1003.7
20260508202326 69 324 7.0 13.0 0.00 0.00 0.00 30 1003.7
20260508202228 69 9 8.7 14.8 0.00 0.00 0.00 31 1003.6
20260508202111 69 299 10.4 14.8 0.00 0.00 0.00 29 1003.6
20260508202014 70 284 10.4 14.8 0.00 0.00 0.00 30 1003.6
20260508201938 70 282 8.7 14.8 0.00 0.00 0.00 29 1003.7
20260508201819 70 355 6.1 14.8 0.00 0.00 0.00 30 1003.8
20260508201744 70 298 7.0 14.8 0.00 0.00 0.00 32 1003.8
20260508201630 70 328 9.6 16.5 0.00 0.00 0.00 28 1003.8
20260508201506 70 342 11.3 16.5 0.00 0.00 0.00 30 1003.9
20260508201409 70 329 8.7 16.5 0.00 0.00 0.00 29 1003.8
20260508201311 70 321 9.6 16.5 0.00 0.00 0.00 34 1003.9
20260508201215 69 360 9.6 20.9 0.00 0.00 0.00 30 1003.8
20260508201117 69 280 7.0 20.9 0.00 0.00 0.00 32 1003.8
20260508201024 69 360 8.7 20.9 0.00 0.00 0.00 32 1003.9
20260508200930 69 344 9.6 20.9 0.00 0.00 0.00 30 1003.9
20260508200805 69 303 8.7 20.9 0.00 0.00 0.00 29 1003.8
20260508200729 69 355 10.4 20.9 0.00 0.00 0.00 33 1003.8
20260508200612 69 360 13.0 20.9 0.00 0.00 0.00 30 1004.0
20260508200534 69 306 14.8 20.9 0.00 0.00 0.00 33 1003.8
20260508200418 69 290 12.2 20.9 0.00 0.00 0.00 33 1003.9
20260508200325 69 277 9.6 16.5 0.00 0.00 0.00 34 1003.8
20260508200227 69 300 9.6 17.4 0.00 0.00 0.00 32 1003.8
20260508200108 69 294 9.6 17.4 0.00 0.00 0.00 31 1003.9
20260508200013 69 290 11.3 17.4 0.00 0.00 0.00 29 1003.9
20260508195936 69 262 12.2 17.4 0.00 0.00 0.00 31 1004.0
20260508195839 69 289 9.6 17.4 0.00 0.00 0.00 32 1004.0
20260508195740 69 300 9.6 17.4 0.00 0.00 0.00 32 1004.0
20260508195624 69 290 10.4 17.4 0.00 0.00 0.00 32 1004.0
20260508195530 69 290 10.4 17.4 0.00 0.00 0.00 29 1004.1
20260508195406 69 331 7.8 14.8 0.00 0.00 0.00 33 1004.0
20260508195310 69 330 7.0 14.8 0.00 0.00 0.00 32 1004.1
20260508195211 69 293 8.7 14.8 0.00 0.00 0.00 33 1004.0
20260508195115 69 338 9.6 14.8 0.00 0.00 0.00 30 1004.0
20260508195017 69 360 7.0 15.6 0.00 0.00 0.00 31 1004.1
20260508194925 69 321 6.1 15.6 0.00 0.00 0.00 31 1004.2
20260508194809 69 281 6.1 15.6 0.00 0.00 0.00 30 1004.2
20260508194732 69 293 6.1 15.6 0.00 0.00 0.00 32 1004.2
20260508194608 68 315 5.2 15.6 0.00 0.00 0.00 31 1004.2
20260508194511 68 35 7.0 15.6 0.00 0.00 0.00 31 1004.2
20260508194415 68 29 9.6 15.6 0.00 0.00 0.00 30 1004.2
20260508194338 68 323 9.6 15.6 0.00 0.00 0.00 29 1004.3
20260508194243 68 342 9.6 15.6 0.00 0.00 0.00 31 1004.4
20260508194109 68 324 8.7 14.8 0.00 0.00 0.00 32 1004.3
20260508194032 68 307 8.7 14.8 0.00 0.00 0.00 32 1004.3
20260508193910 68 275 8.7 14.8 0.00 0.00 0.00 33 1004.3
20260508193813 68 300 7.8 14.8 0.00 0.00 0.00 34 1004.3
20260508193738 68 300 8.7 14.8 0.00 0.00 0.00 31 1004.3
20260508193619 68 302 7.8 18.2 0.00 0.00 0.00 30 1004.3
20260508193506 68 340 7.0 18.2 0.00 0.00 0.00 32 1004.3
20260508193432 68 301 7.0 18.2 0.00 0.00 0.00 35 1004.4
20260508193308 68 271 8.7 18.2 0.00 0.00 0.00 33 1004.4
20260508193233 68 265 8.7 18.2 0.00 0.00 0.00 31 1004.5
20260508193109 68 304 6.1 18.2 0.00 0.00 0.00 33 1004.4
20260508193013 68 306 7.8 18.2 0.00 0.00 0.00 33 1004.5
20260508192917 68 310 12.2 18.2 0.00 0.00 0.00 32 1004.5
20260508192806 68 291 13.0 18.2 0.00 0.00 0.00 30 1004.5
20260508192730 68 278 12.2 16.5 0.00 0.00 0.00 30 1004.4
20260508192607 68 287 10.4 15.6 0.00 0.00 0.00 33 1004.5
20260508192510 68 297 9.6 13.9 0.00 0.00 0.00 33 1004.4
20260508192435 67 264 7.0 13.0 0.00 0.00 0.00 32 1004.4
20260508192339 67 343 6.1 13.0 0.00 0.00 0.00 33 1004.5
20260508192206 67 290 5.2 13.0 0.00 0.00 0.00 31 1004.6
20260508192131 67 302 5.2 13.0 0.00 0.00 0.00 31 1004.6
20260508192009 67 302 7.0 13.9 0.00 0.00 0.00 32 1004.6
20260508191933 67 303 7.8 13.9 0.00 0.00 0.00 32 1004.6
20260508191809 67 308 7.8 13.9 0.00 0.00 0.00 35 1004.6
20260508191713 67 303 7.8 13.9 0.00 0.00 0.00 34 1004.6
20260508191618 67 300 7.8 13.9 0.00 0.00 0.00 35 1004.5
20260508191525 67 315 7.8 13.9 0.00 0.00 0.00 32 1004.6
20260508191410 67 293 8.7 13.9 0.00 0.00 0.00 31 1004.6
20260508191314 67 321 10.4 13.9 0.00 0.00 0.00 33 1004.6
20260508191218 67 296 9.6 13.9 0.00 0.00 0.00 34 1004.6
20260508191143 67 298 9.6 13.9 0.00 0.00 0.00 31 1004.7
20260508191027 67 300 10.4 13.9 0.00 0.00 0.00 33 1004.7
20260508190913 67 294 9.6 13.9 0.00 0.00 0.00 31 1004.7
20260508190817 67 297 7.8 13.0 0.00 0.00 0.00 33 1004.7
20260508190740 67 315 7.0 13.0 0.00 0.00 0.00 32 1004.8
20260508190624 67 304 6.1 13.9 0.00 0.00 0.00 33 1004.8
20260508190546 67 348 7.0 13.9 0.00 0.00 0.00 31 1004.8
20260508190431 67 318 7.0 13.9 0.00 0.00 0.00 32 1004.8
20260508190313 67 310 5.2 13.9 0.00 0.00 0.00 32 1004.8
20260508190238 67 298 4.3 13.9 0.00 0.00 0.00 33 1004.7
20260508190125 67 17 4.3 13.9 0.00 0.00 0.00 31 1004.8
20260508190010 68 313 6.1 13.9 0.00 0.00 0.00 35 1004.7
20260508185914 67 296 6.1 13.9 0.00 0.00 0.00 31 1004.9
20260508185818 67 339 4.3 12.2 0.00 0.00 0.00 31 1004.9
20260508185723 67 355 5.2 12.2 0.00 0.00 0.00 32 1004.8
20260508185610 67 344 6.1 15.6 0.00 0.00 0.00 32 1004.8
20260508185536 67 355 4.3 15.6 0.00 0.00 0.00 33 1004.9
20260508185419 67 337 5.2 15.6 0.00 0.00 0.00 35 1004.9
20260508185322 67 36 6.1 15.6 0.00 0.00 0.00 32 1004.9
20260508185247 67 16 7.0 15.6 0.00 0.00 0.00 31 1004.9
20260508185110 67 33 7.0 15.6 0.00 0.00 0.00 35 1005.0
20260508185013 67 53 7.8 16.5 0.00 0.00 0.00 32 1004.9
20260508184921 67 360 9.6 16.5 0.00 0.00 0.00 34 1004.9
20260508184845 67 312 11.3 16.5 0.00 0.00 0.00 33 1004.9
20260508184708 67 300 7.8 16.5 0.00 0.00 0.00 32 1004.9
20260508184632 67 320 7.8 16.5 0.00 0.00 0.00 34 1004.9
20260508184509 67 279 9.6 16.5 0.00 0.00 0.00 35 1004.9
20260508184431 67 295 9.6 16.5 0.00 0.00 0.00 33 1004.9
20260508184333 67 298 10.4 16.5 0.00 0.00 0.00 32 1004.9
20260508184236 67 293 10.4 16.5 0.00 0.00 0.00 33 1004.9
20260508184123 67 306 9.6 16.5 0.00 0.00 0.00 32 1004.9
20260508184008 67 315 6.1 14.8 0.00 0.00 0.00 32 1004.9
20260508183911 67 333 7.0 14.8 0.00 0.00 0.00 30 1005.0
20260508183815 67 5 8.7 15.6 0.00 0.00 0.00 31 1005.0
20260508183718 67 323 7.0 15.6 0.00 0.00 0.00 31 1005.1
20260508183623 66 337 7.8 16.5 0.00 0.00 0.00 35 1005.0
20260508183530 66 360 7.8 16.5 0.00 0.00 0.00 32 1005.1
20260508183407 66 360 8.7 16.5 0.00 0.00 0.00 33 1005.2
20260508183330 66 344 8.7 16.5 0.00 0.00 0.00 36 1005.2
20260508183232 66 297 9.6 16.5 0.00 0.00 0.00 35 1005.0
20260508183115 66 278 11.3 16.5 0.00 0.00 0.00 31 1005.0
20260508183019 66 299 12.2 16.5 0.00 0.00 0.00 32 1005.0
20260508182920 66 293 13.0 16.5 0.00 0.00 0.00 33 1005.0
20260508182843 67 285 13.0 16.5 0.00 0.00 0.00 32 1005.1
20260508182730 67 306 13.0 15.6 0.00 0.00 0.00 32 1005.1
20260508182614 67 288 12.2 14.8 0.00 0.00 0.00 33 1005.1
20260508182517 67 295 11.3 14.8 0.00 0.00 0.00 33 1005.2
20260508182421 67 282 8.7 14.8 0.00 0.00 0.00 34 1005.2
20260508182324 67 270 7.8 13.0 0.00 0.00 0.00 33 1005.2
20260508182227 67 313 7.0 13.9 0.00 0.00 0.00 32 1005.4
20260508182110 67 5 6.1 16.5 0.00 0.00 0.00 34 1005.2
20260508182038 66 351 5.2 16.5 0.00 0.00 0.00 36 1005.3
20260508181921 66 355 6.1 17.4 0.00 0.00 0.00 33 1005.3
20260508181823 66 319 7.0 17.4 0.00 0.00 0.00 33 1005.3
20260508181706 66 262 8.7 19.1 0.00 0.00 0.00 31 1005.4
20260508181610 66 297 11.3 19.1 0.00 0.00 0.00 34 1005.3
20260508181513 66 323 12.2 19.1 0.00 0.00 0.00 34 1005.4
20260508181418 66 303 13.0 19.1 0.00 0.00 0.00 33 1005.4
20260508181306 66 302 12.2 19.1 0.00 0.00 0.00 30 1005.4
20260508181209 66 314 13.0 19.1 0.00 0.00 0.00 31 1005.3
20260508181133 66 304 13.9 19.1 0.00 0.00 0.00 34 1005.5
20260508181015 66 302 13.9 19.1 0.00 0.00 0.00 34 1005.4
20260508180918 66 306 14.8 19.1 0.00 0.00 0.00 32 1005.5
20260508180821 66 296 13.0 19.1 0.00 0.00 0.00 31 1005.5
20260508180708 66 290 10.4 18.2 0.00 0.00 0.00 32 1005.5
20260508180632 66 351 9.6 15.6 0.00 0.00 0.00 34 1005.5
20260508180513 66 323 10.4 15.6 0.00 0.00 0.00 34 1005.5
20260508180417 66 293 11.3 15.6 0.00 0.00 0.00 34 1005.6
20260508180341 66 302 10.4 15.6 0.00 0.00 0.00 34 1005.5
20260508180222 66 355 10.4 14.8 0.00 0.00 0.00 33 1005.6
20260508180123 67 292 9.6 14.8 0.00 0.00 0.00 33 1005.6
20260508180030 67 334 9.6 14.8 0.00 0.00 0.00 35 1005.5
20260508175907 67 334 9.6 14.8 0.00 0.00 0.00 34 1005.6
20260508175830 67 296 9.6 13.0 0.00 0.00 0.00 34 1005.6
20260508175706 67 289 7.0 13.0 0.00 0.00 0.00 34 1005.6
20260508175610 66 325 5.2 13.0 0.00 0.00 0.00 35 1005.7
20260508175512 66 309 7.0 13.0 0.00 0.00 0.00 32 1005.6
20260508175436 66 360 7.8 13.0 0.00 0.00 0.00 30 1005.8
20260508175322 66 344 7.8 13.0 0.00 0.00 0.00 32 1005.8
20260508175226 66 360 7.0 12.2 0.00 0.00 0.00 31 1005.7
20260508175128 66 332 6.1 13.0 0.00 0.00 0.00 35 1005.7
20260508175011 66 301 6.1 16.5 0.00 0.00 0.00 34 1005.8
20260508174935 65 322 5.2 16.5 0.00 0.00 0.00 38 1005.7
20260508174816 65 313 7.0 16.5 0.00 0.00 0.00 36 1005.7
20260508174718 65 288 7.8 16.5 0.00 0.00 0.00 32 1005.8
20260508174607 65 305 7.8 16.5 0.00 0.00 0.00 34 1005.9
20260508174529 65 313 7.0 16.5 0.00 0.00 0.00 34 1005.9
20260508174453 65 296 7.0 16.5 0.00 0.00 0.00 34 1005.8
20260508174308 65 296 8.7 16.5 0.00 0.00 0.00 33 1005.8
20260508174231 65 300 8.7 16.5 0.00 0.00 0.00 34 1005.9
20260508174115 65 311 9.6 16.5 0.00 0.00 0.00 33 1005.8
20260508174017 65 305 9.6 16.5 0.00 0.00 0.00 33 1005.8
20260508173925 65 317 8.7 15.6 0.00 0.00 0.00 33 1005.9
20260508173848 65 323 10.4 15.6 0.00 0.00 0.00 32 1005.9
20260508173728 65 300 12.2 15.6 0.00 0.00 0.00 33 1005.9
20260508173652 66 273 10.4 14.8 0.00 0.00 0.00 35 1006.0
20260508173507 65 290 7.8 12.2 0.00 0.00 0.00 35 1006.0
20260508173431 65 335 6.1 13.0 0.00 0.00 0.00 35 1006.0
20260508173333 65 343 4.3 13.0 0.00 0.00 0.00 33 1006.1
20260508173214 65 307 4.3 13.0 0.00 0.00 0.00 37 1005.9
20260508173121 65 5 4.3 13.0 0.00 0.00 0.00 34 1006.0
20260508173026 65 355 4.3 13.0 0.00 0.00 0.00 36 1006.1
20260508172910 65 317 4.3 13.0 0.00 0.00 0.00 34 1006.1
20260508172812 65 326 7.0 13.0 0.00 0.00 0.00 33 1006.1
20260508172716 65 333 7.0 13.0 0.00 0.00 0.00 32 1006.2
20260508172620 65 343 4.3 13.0 0.00 0.00 0.00 34 1006.2
20260508172547 65 9 4.3 13.0 0.00 0.00 0.00 32 1006.2
20260508172428 64 265 7.0 13.0 0.00 0.00 0.00 32 1006.1
20260508172310 64 290 6.1 13.0 0.00 0.00 0.00 35 1006.2
20260508172234 64 334 7.8 13.0 0.00 0.00 0.00 34 1006.2
20260508172116 64 340 7.0 13.0 0.00 0.00 0.00 33 1006.2
20260508172020 64 346 6.1 13.9 0.00 0.00 0.00 34 1006.3
20260508171922 64 21 7.0 13.9 0.00 0.00 0.00 35 1006.3
20260508171810 64 319 6.1 13.9 0.00 0.00 0.00 35 1006.3
20260508171734 64 294 5.2 13.9 0.00 0.00 0.00 36 1006.2
20260508171608 64 296 7.8 13.9 0.00 0.00 0.00 35 1006.2
20260508171511 64 297 7.8 13.9 0.00 0.00 0.00 36 1006.2
20260508171413 64 279 7.8 13.9 0.00 0.00 0.00 36 1006.4
20260508171318 64 284 8.7 13.9 0.00 0.00 0.00 36 1006.4
20260508171240 64 273 7.8 13.9 0.00 0.00 0.00 36 1006.4
20260508171106 64 297 5.2 13.9 0.00 0.00 0.00 37 1006.4
20260508171030 64 294 5.2 13.9 0.00 0.00 0.00 36 1006.4
20260508170912 63 355 7.8 13.9 0.00 0.00 0.00 39 1006.4
20260508170815 63 294 8.7 13.9 0.00 0.00 0.00 39 1006.4
20260508170718 63 290 9.6 13.9 0.00 0.00 0.00 36 1006.4
20260508170621 63 309 9.6 13.9 0.00 0.00 0.00 36 1006.4
20260508170507 63 269 8.7 13.9 0.00 0.00 0.00 33 1006.4
20260508170432 63 290 8.7 13.9 0.00 0.00 0.00 33 1006.5
20260508170307 63 239 10.4 13.0 0.00 0.00 0.00 34 1006.6
20260508170211 63 298 8.7 13.0 0.00 0.00 0.00 36 1006.6
20260508170113 63 295 7.0 13.0 0.00 0.00 0.00 36 1006.6
20260508170037 63 300 6.1 13.0 0.00 0.00 0.00 34 1006.6
20260508165939 63 292 5.2 13.0 0.00 0.00 0.00 35 1006.6
20260508165842 63 299 7.0 13.0 0.00 0.00 0.00 34 1006.6
20260508165708 63 287 7.8 13.0 0.00 0.00 0.00 37 1006.7
20260508165632 63 289 6.1 13.0 0.00 0.00 0.00 37 1006.7
20260508165509 63 360 6.1 11.3 0.00 0.00 0.00 36 1006.7
20260508165432 63 288 7.0 11.3 0.00 0.00 0.00 37 1006.8
20260508165315 63 288 7.0 11.3 0.00 0.00 0.00 36 1006.8
20260508165240 62 302 7.0 11.3 0.00 0.00 0.00 37 1006.7
20260508165142 62 348 6.1 13.9 0.00 0.00 0.00 36 1006.7
20260508165030 62 329 5.2 13.9 0.00 0.00 0.00 38 1006.8
20260508164906 62 323 7.0 13.9 0.00 0.00 0.00 39 1006.8
20260508164810 62 295 7.0 13.9 0.00 0.00 0.00 38 1006.8
20260508164715 62 299 6.1 13.9 0.00 0.00 0.00 37 1006.8
20260508164619 62 304 5.2 13.9 0.00 0.00 0.00 36 1006.8
20260508164523 62 271 6.1 13.9 0.00 0.00 0.00 37 1006.9
20260508164430 62 284 7.0 13.9 0.00 0.00 0.00 40 1006.9
20260508164307 62 310 8.7 13.9 0.00 0.00 0.00 41 1006.8
20260508164210 62 306 9.6 13.0 0.00 0.00 0.00 39 1006.9
20260508164114 62 328 8.7 13.0 0.00 0.00 0.00 40 1006.9
20260508164020 62 284 7.0 12.2 0.00 0.00 0.00 39 1007.0
20260508163923 62 338 6.1 12.2 0.00 0.00 0.00 41 1006.9
20260508163831 62 343 4.3 12.2 0.00 0.00 0.00 40 1007.0
20260508163707 61 339 6.1 12.2 0.00 0.00 0.00 38 1007.0
20260508163632 61 314 7.0 12.2 0.00 0.00 0.00 38 1007.1
20260508163508 61 341 6.1 12.2 0.00 0.00 0.00 38 1006.9
20260508163433 61 303 7.0 12.2 0.00 0.00 0.00 38 1007.0
20260508163316 61 302 7.8 12.2 0.00 0.00 0.00 38 1007.0
20260508163220 61 306 8.7 12.2 0.00 0.00 0.00 38 1007.0
20260508163106 61 284 8.7 12.2 0.00 0.00 0.00 37 1007.0
20260508163009 61 291 8.7 12.2 0.00 0.00 0.00 38 1007.0
20260508162912 61 272 9.6 12.2 0.00 0.00 0.00 39 1007.0
20260508162836 61 274 9.6 12.2 0.00 0.00 0.00 40 1007.0
20260508162719 61 294 7.8 12.2 0.00 0.00 0.00 38 1007.1
20260508162622 61 276 7.0 10.4 0.00 0.00 0.00 40 1007.0
20260508162508 61 266 7.0 10.4 0.00 0.00 0.00 41 1007.0
20260508162432 61 305 7.8 10.4 0.00 0.00 0.00 41 1007.1
20260508162308 61 298 6.1 10.4 0.00 0.00 0.00 42 1007.1
20260508162231 61 317 4.3 9.6 0.00 0.00 0.00 43 1007.0
20260508162114 61 286 3.5 9.6 0.00 0.00 0.00 42 1007.0
20260508162017 60 360 4.3 9.6 0.00 0.00 0.00 46 1007.1
20260508161939 60 296 6.1 9.6 0.00 0.00 0.00 44 1007.2
20260508161808 60 293 7.0 9.6 0.00 0.00 0.00 43 1007.1
20260508161711 60 313 6.1 9.6 0.00 0.00 0.00 43 1007.2
20260508161614 60 303 5.2 9.6 0.00 0.00 0.00 44 1007.2
20260508161516 59 271 4.3 9.6 0.00 0.00 0.00 43 1007.1
20260508161419 59 225 5.2 9.6 0.00 0.00 0.00 43 1007.3
20260508161322 59 270 7.0 9.6 0.00 0.00 0.00 43 1007.3
20260508161209 59 296 5.2 9.6 0.00 0.00 0.00 45 1007.3
20260508161113 59 304 3.5 9.6 0.00 0.00 0.00 45 1007.3
20260508161036 59 301 3.5 9.6 0.00 0.00 0.00 45 1007.3
20260508160918 58 309 3.5 9.6 0.00 0.00 0.00 43 1007.3
20260508160841 58 296 4.3 9.6 0.00 0.00 0.00 44 1007.3
20260508160724 58 289 5.2 9.6 0.00 0.00 0.00 43 1007.4
20260508160626 58 306 5.2 9.6 0.00 0.00 0.00 45 1007.3
20260508160513 58 297 4.3 9.6 0.00 0.00 0.00 45 1007.3
20260508160415 58 265 5.2 9.6 0.00 0.00 0.00 45 1007.3
20260508160318 58 304 6.1 9.6 0.00 0.00 0.00 46 1007.3
20260508160222 58 302 6.1 9.6 0.00 0.00 0.00 44 1007.4
20260508160146 58 274 7.0 9.6 0.00 0.00 0.00 45 1007.3
20260508160029 58 259 7.0 9.6 0.00 0.00 0.00 44 1007.3
20260508155912 58 281 6.1 9.6 0.00 0.00 0.00 46 1007.4
20260508155820 57 288 7.0 9.6 0.00 0.00 0.00 45 1007.4
20260508155723 57 294 7.0 9.6 0.00 0.00 0.00 45 1007.4
20260508155608 57 295 6.1 9.6 0.00 0.00 0.00 44 1007.4
20260508155512 57 325 6.1 9.6 0.00 0.00 0.00 45 1007.4
20260508155435 57 295 7.0 9.6 0.00 0.00 0.00 48 1007.4
20260508155338 57 290 5.2 10.4 0.00 0.00 0.00 45 1007.4
20260508155220 57 306 3.5 10.4 0.00 0.00 0.00 46 1007.4
20260508155108 57 306 2.6 10.4 0.00 0.00 0.00 47 1007.4
20260508155032 57 269 3.5 11.3 0.00 0.00 0.00 46 1007.4
20260508154908 57 271 6.1 11.3 0.00 0.00 0.00 46 1007.4
20260508154832 57 296 7.0 11.3 0.00 0.00 0.00 46 1007.5
20260508154708 57 286 7.0 11.3 0.00 0.00 0.00 45 1007.5
20260508154612 57 293 7.8 11.3 0.00 0.00 0.00 45 1007.5
20260508154521 57 303 7.8 11.3 0.00 0.00 0.00 48 1007.5
20260508154423 57 297 7.8 11.3 0.00 0.00 0.00 46 1007.5
20260508154308 57 301 7.8 11.3 0.00 0.00 0.00 46 1007.5
20260508154232 57 315 7.8 11.3 0.00 0.00 0.00 46 1007.5
20260508154108 57 288 6.1 10.4 0.00 0.00 0.00 46 1007.5
20260508154013 57 265 5.2 10.4 0.00 0.00 0.00 46 1007.6
20260508153922 57 272 6.1 10.4 0.00 0.00 0.00 45 1007.6
20260508153806 57 275 7.0 10.4 0.00 0.00 0.00 47 1007.6
20260508153711 57 269 6.1 10.4 0.00 0.00 0.00 47 1007.6
20260508153616 57 306 6.1 10.4 0.00 0.00 0.00 46 1007.6
20260508153522 57 295 6.1 10.4 0.00 0.00 0.00 45 1007.6
20260508153424 57 317 7.0 10.4 0.00 0.00 0.00 46 1007.7
20260508153351 57 327 6.1 10.4 0.00 0.00 0.00 46 1007.6
20260508153207 56 329 6.1 10.4 0.00 0.00 0.00 44 1007.6
20260508153132 56 258 6.1 8.7 0.00 0.00 0.00 44 1007.6
20260508153009 56 261 5.2 10.4 0.00 0.00 0.00 45 1007.7
20260508152931 56 304 6.1 10.4 0.00 0.00 0.00 47 1007.6
20260508152815 56 316 6.1 10.4 0.00 0.00 0.00 46 1007.7
20260508152719 56 299 6.1 10.4 0.00 0.00 0.00 46 1007.7
20260508152647 56 286 6.1 10.4 0.00 0.00 0.00 47 1007.6
20260508152551 56 306 6.1 10.4 0.00 0.00 0.00 47 1007.7
20260508152407 56 288 7.0 10.4 0.00 0.00 0.00 47 1007.6
20260508152311 56 292 7.0 10.4 0.00 0.00 0.00 48 1007.6
20260508152235 56 292 7.0 10.4 0.00 0.00 0.00 49 1007.7
20260508152118 56 244 5.2 9.6 0.00 0.00 0.00 47 1007.7
20260508152022 56 284 4.3 9.6 0.00 0.00 0.00 47 1007.7
20260508151911 56 292 5.2 9.6 0.00 0.00 0.00 48 1007.7
20260508151835 56 285 7.0 9.6 0.00 0.00 0.00 46 1007.7
20260508151738 56 275 7.0 9.6 0.00 0.00 0.00 47 1007.7
20260508151642 56 309 6.1 9.6 0.00 0.00 0.00 47 1007.7
20260508151525 56 285 6.1 9.6 0.00 0.00 0.00 48 1007.8
20260508151429 56 302 6.1 8.7 0.00 0.00 0.00 49 1007.7
20260508151306 56 265 7.0 8.7 0.00 0.00 0.00 49 1007.8
20260508151214 56 282 6.1 8.7 0.00 0.00 0.00 49 1007.8
20260508151118 56 289 5.2 7.8 0.00 0.00 0.00 47 1007.9
20260508151023 55 284 3.5 6.1 0.00 0.00 0.00 47 1007.7
20260508150925 55 294 2.6 6.1 0.00 0.00 0.00 49 1007.7
20260508150809 55 11 1.7 7.0 0.00 0.00 0.00 51 1007.8
20260508150733 55 13 0.9 8.7 0.00 0.00 0.00 50 1007.7
20260508150617 55 13 1.7 8.7 0.00 0.00 0.00 50 1007.8
20260508150518 55 13 1.7 8.7 0.00 0.00 0.00 52 1007.9
20260508150406 55 269 0.9 8.7 0.00 0.00 0.00 52 1007.9
20260508150330 55 269 0.9 8.7 0.00 0.00 0.00 51 1007.9
20260508150207 55 317 1.7 8.7 0.00 0.00 0.00 50 1007.9
20260508150112 55 315 4.3 8.7 0.00 0.00 0.00 50 1007.9
20260508150016 54 316 6.1 8.7 0.00 0.00 0.00 48 1007.9
20260508145920 54 284 6.1 8.7 0.00 0.00 0.00 51 1008.0
20260508145807 54 297 4.3 6.1 0.00 0.00 0.00 50 1007.9
20260508145731 54 310 3.5 4.3 0.00 0.00 0.00 49 1007.9
20260508145608 54 307 2.6 4.3 0.00 0.00 0.00 50 1007.9
20260508145533 54 324 2.6 3.5 0.00 0.00 0.00 51 1007.9
20260508145435 54 313 1.7 3.5 0.00 0.00 0.00 50 1008.0
20260508145317 54 315 2.6 3.5 0.00 0.00 0.00 49 1008.0
20260508145221 54 249 2.6 4.3 0.00 0.00 0.00 49 1008.0
20260508145130 54 244 2.6 4.3 0.00 0.00 0.00 50 1008.0
20260508145007 54 269 2.6 5.2 0.00 0.00 0.00 53 1008.0
20260508144932 54 289 2.6 5.2 0.00 0.00 0.00 53 1008.1
20260508144808 54 287 0.9 7.0 0.00 0.00 0.00 53 1008.1
20260508144732 54 299 0.9 7.0 0.00 0.00 0.00 52 1008.1
20260508144635 54 300 0.9 7.0 0.00 0.00 0.00 51 1008.1
20260508144518 54 300 1.7 7.0 0.00 0.00 0.00 50 1008.1
20260508144425 54 298 2.6 7.0 0.00 0.00 0.00 50 1008.2
20260508144310 54 335 3.5 7.0 0.00 0.00 0.00 50 1008.1
20260508144215 54 331 3.5 7.0 0.00 0.00 0.00 51 1008.1
20260508144120 54 314 3.5 7.0 0.00 0.00 0.00 50 1008.2
20260508144024 54 345 1.7 5.2 0.00 0.00 0.00 52 1008.3
20260508143912 54 339 0.9 3.5 0.00 0.00 0.00 52 1008.3
20260508143815 54 336 0.9 3.5 0.00 0.00 0.00 50 1008.1
20260508143740 53 336 0.9 3.5 0.00 0.00 0.00 51 1008.2
20260508143623 54 336 0.9 3.5 0.00 0.00 0.00 50 1008.3
20260508143527 53 346 0.9 3.5 0.00 0.00 0.00 51 1008.2
20260508143410 53 346 1.7 3.5 0.00 0.00 0.00 52 1008.2
20260508143315 53 346 1.7 3.5 0.00 0.00 0.00 51 1008.2
20260508143223 53 346 1.7 3.5 0.00 0.00 0.00 51 1008.2
20260508143107 53 355 1.7 4.3 0.00 0.00 0.00 52 1008.3
20260508143029 53 342 1.7 4.3 0.00 0.00 0.00 52 1008.3
20260508142907 53 355 1.7 4.3 0.00 0.00 0.00 50 1008.3
20260508142812 53 300 2.6 4.3 0.00 0.00 0.00 51 1008.3
20260508142717 53 300 2.6 4.3 0.00 0.00 0.00 51 1008.3
20260508142625 53 299 2.6 4.3 0.00 0.00 0.00 51 1008.3
20260508142529 53 276 1.7 4.3 0.00 0.00 0.00 51 1008.3
20260508142411 53 360 2.6 4.3 0.00 0.00 0.00 52 1008.3
20260508142335 53 360 2.6 4.3 0.00 0.00 0.00 52 1008.3
20260508142219 53 355 2.6 4.3 0.00 0.00 0.00 52 1008.3
20260508142124 53 17 2.6 4.3 0.00 0.00 0.00 52 1008.3
20260508142028 53 22 1.7 5.2 0.00 0.00 0.00 53 1008.3
20260508141915 53 5 0.9 5.2 0.00 0.00 0.00 52 1008.3
20260508141820 53 346 1.7 5.2 0.00 0.00 0.00 52 1008.3
20260508141723 53 347 1.7 5.2 0.00 0.00 0.00 51 1008.4
20260508141627 53 305 0.9 5.2 0.00 0.00 0.00 52 1008.3
20260508141529 52 304 1.7 5.2 0.00 0.00 0.00 52 1008.3
20260508141406 52 304 2.6 5.2 0.00 0.00 0.00 51 1008.3
20260508141311 52 338 2.6 5.2 0.00 0.00 0.00 52 1008.3
20260508141219 52 333 2.6 5.2 0.00 0.00 0.00 51 1008.3
20260508141123 52 338 1.7 5.2 0.00 0.00 0.00 53 1008.8
20260508141028 52 308 1.7 4.3 0.00 0.00 0.00 52 1008.3
20260508140952 52 307 2.6 4.3 0.00 0.00 0.00 51 1008.3
20260508140809 52 308 2.6 4.3 0.00 0.00 0.00 52 1008.3
20260508140713 52 24 1.7 3.5 0.00 0.00 0.00 54 1008.3
20260508140622 52 25 1.7 3.5 0.00 0.00 0.00 53 1008.2
20260508140526 52 26 1.7 3.5 0.00 0.00 0.00 51 1008.3
20260508140429 52 355 1.7 3.5 0.00 0.00 0.00 52 1008.3
20260508140306 52 288 1.7 3.5 0.00 0.00 0.00 55 1008.3
20260508140231 52 260 1.7 3.5 0.00 0.00 0.00 53 1008.3
20260508140108 52 260 1.7 3.5 0.00 0.00 0.00 53 1008.3
20260508140031 51 325 1.7 3.5 0.00 0.00 0.00 53 1008.3
20260508135919 51 248 0.9 2.6 0.00 0.00 0.00 53 1008.4
20260508135823 51 248 0.9 2.6 0.00 0.00 0.00 55 1008.4
20260508135708 51 248 0.9 2.6 0.00 0.00 0.00 54 1008.4
20260508135632 51 248 0.9 2.6 0.00 0.00 0.00 54 1008.4
20260508135508 51 248 1.7 2.6 0.00 0.00 0.00 55 1008.4
20260508135412 51 248 0.9 2.6 0.00 0.00 0.00 56 1008.4
20260508135320 51 244 0.9 2.6 0.00 0.00 0.00 57 1008.4
20260508135225 51 256 0.9 3.5 0.00 0.00 0.00 57 1008.4
20260508135129 51 57 0.9 3.5 0.00 0.00 0.00 54 1008.4
20260508135033 51 63 0.9 3.5 0.00 0.00 0.00 55 1008.4
20260508134917 51 63 0.9 3.5 0.00 0.00 0.00 54 1008.5
20260508134841 51 63 1.7 3.5 0.00 0.00 0.00 54 1008.5
20260508134724 51 63 1.7 3.5 0.00 0.00 0.00 55 1008.5
20260508134632 51 63 1.7 3.5 0.00 0.00 0.00 57 1008.5
20260508134509 51 63 1.7 3.5 0.00 0.00 0.00 55 1008.5
20260508134434 51 64 2.6 3.5 0.00 0.00 0.00 55 1008.5
20260508134316 51 59 2.6 3.5 0.00 0.00 0.00 56 1008.5
20260508134221 51 49 1.7 3.5 0.00 0.00 0.00 54 1008.5
20260508134124 51 49 0.9 3.5 0.00 0.00 0.00 56 1008.5
20260508134012 51 50 1.7 3.5 0.00 0.00 0.00 54 1008.6
20260508133917 50 50 2.6 3.5 0.00 0.00 0.00 54 1008.6
20260508133820 51 26 2.6 3.5 0.00 0.00 0.00 55 1008.6
20260508133724 51 23 2.6 3.5 0.00 0.00 0.00 56 1008.6
20260508133610 51 22 2.6 3.5 0.00 0.00 0.00 59 1008.6
20260508133514 51 36 1.7 3.5 0.00 0.00 0.00 58 1008.6
20260508133422 51 37 1.7 3.5 0.00 0.00 0.00 55 1008.6
20260508133307 51 37 1.7 3.5 0.00 0.00 0.00 57 1008.6
20260508133231 51 37 2.6 3.5 0.00 0.00 0.00 56 1008.6
20260508133115 51 24 2.6 3.5 0.00 0.00 0.00 54 1008.6
20260508133039 50 18 1.7 3.5 0.00 0.00 0.00 54 1008.6
20260508132922 50 360 1.7 3.5 0.00 0.00 0.00 57 1008.7
20260508132806 50 355 0.9 3.5 0.00 0.00 0.00 54 1008.7
20260508132713 50 355 1.7 3.5 0.00 0.00 0.00 55 1008.7
20260508132616 50 355 1.7 3.5 0.00 0.00 0.00 55 1008.6
20260508132541 50 346 2.6 3.5 0.00 0.00 0.00 57 1008.6
20260508132424 50 355 2.6 3.5 0.00 0.00 0.00 57 1008.7
20260508132309 50 339 1.7 3.5 0.00 0.00 0.00 62 1008.6
20260508132212 49 11 0.9 2.6 0.00 0.00 0.00 62 1008.6
20260508132119 49 11 0.9 4.3 0.00 0.00 0.00 63 1008.7
20260508132023 49 11 0.9 4.3 0.00 0.00 0.00 62 1008.6
20260508131908 49 11 0.9 4.3 0.00 0.00 0.00 62 1008.6
20260508131831 48 11 0.9 4.3 0.00 0.00 0.00 63 1008.7
20260508131733 48 11 0.9 4.3 0.00 0.00 0.00 64 1008.7
20260508131608 48 11 0.9 4.3 0.00 0.00 0.00 63 1008.6
20260508131513 48 11 1.7 4.3 0.00 0.00 0.00 64 1008.7
20260508131422 48 11 1.7 4.3 0.00 0.00 0.00 63 1008.7
20260508131325 48 11 2.6 4.3 0.00 0.00 0.00 62 1008.7
20260508131229 47 309 3.5 4.3 0.00 0.00 0.00 62 1008.7
20260508131106 47 296 2.6 3.5 0.00 0.00 0.00 65 1008.6
20260508131010 47 338 1.7 3.5 0.00 0.00 0.00 66 1008.7
20260508130933 47 41 1.7 3.5 0.00 0.00 0.00 66 1008.7
20260508130821 46 75 0.9 1.7 0.00 0.00 0.00 66 1008.6
20260508130745 46 75 0.9 1.7 0.00 0.00 0.00 67 1008.7
20260508130628 46 75 0.0 1.7 0.00 0.00 0.00 68 1008.7
20260508130552 46 75 0.0 1.7 0.00 0.00 0.00 69 1008.7
20260508130407 46 75 0.0 1.7 0.00 0.00 0.00 70 1008.7
20260508130311 45 75 0.9 1.7 0.00 0.00 0.00 72 1008.7
20260508130236 45 75 0.9 1.7 0.00 0.00 0.00 70 1008.6
20260508130120 45 75 0.9 1.7 0.00 0.00 0.00 71 1008.6
20260508130028 45 75 0.9 1.7 0.00 0.00 0.00 72 1008.7
20260508125910 44 75 0.9 1.7 0.00 0.00 0.00 71 1008.7
20260508125835 44 75 0.9 1.7 0.00 0.00 0.00 71 1008.7
20260508125718 44 75 0.9 1.7 0.00 0.00 0.00 72 1008.6
20260508125621 44 75 0.9 1.7 0.00 0.00 0.00 72 1008.7
20260508125546 44 75 0.9 1.7 0.00 0.00 0.00 72 1008.7
20260508125410 43 75 0.9 2.6 0.00 0.00 0.00 71 1008.6
20260508125337 43 75 0.9 2.6 0.00 0.00 0.00 72 1008.7
20260508125220 43 75 0.9 2.6 0.00 0.00 0.00 72 1008.7
20260508125125 43 75 1.7 2.6 0.00 0.00 0.00 73 1008.7
20260508125028 43 75 1.7 2.6 0.00 0.00 0.00 74 1008.8
20260508124911 43 75 1.7 2.6 0.00 0.00 0.00 74 1008.7
20260508124815 42 75 1.7 2.6 0.00 0.00 0.00 75 1008.7
20260508124721 42 75 1.7 2.6 0.00 0.00 0.00 76 1008.7
20260508124608 42 75 1.7 1.7 0.00 0.00 0.00 76 1008.7
20260508124514 42 75 1.7 1.7 0.00 0.00 0.00 77 1008.7
20260508124417 42 75 1.7 1.7 0.00 0.00 0.00 77 1008.8
20260508124322 42 75 0.9 1.7 0.00 0.00 0.00 77 1008.7
20260508124227 41 75 0.9 1.7 0.00 0.00 0.00 78 1008.8
20260508124111 41 75 1.7 1.7 0.00 0.00 0.00 78 1008.7
20260508124017 41 75 1.7 1.7 0.00 0.00 0.00 78 1008.7
20260508123922 41 75 0.9 1.7 0.00 0.00 0.00 78 1008.7
20260508123826 41 75 0.9 1.7 0.00 0.00 0.00 78 1008.7
20260508123711 41 75 0.9 1.7 0.00 0.00 0.00 78 1008.7
20260508123615 40 75 0.9 1.7 0.00 0.00 0.00 78 1008.7
20260508123518 40 75 0.0 0.9 0.00 0.00 0.00 78 1008.8
20260508123406 40 75 0.0 0.0 0.00 0.00 0.00 78 1008.7
20260508123329 40 75 0.0 0.0 0.00 0.00 0.00 78 1008.7
20260508123206 40 75 0.0 0.0 0.00 0.00 0.00 78 1008.7
20260508123109 39 75 0.0 0.0 0.00 0.00 0.00 78 1008.7
20260508123011 39 75 0.0 0.0 0.00 0.00 0.00 79 1008.7
20260508122935 39 75 0.0 0.0 0.00 0.00 0.00 79 1008.7
20260508122818 39 75 0.0 0.0 0.00 0.00 0.00 79 1008.7
20260508122706 39 75 0.0 0.0 0.00 0.00 0.00 79 1008.8
20260508122610 39 75 0.0 0.0 0.00 0.00 0.00 79 1008.8
20260508122514 38 75 0.0 0.0 0.00 0.00 0.00 79 1008.7
20260508122416 38 75 0.0 0.0 0.00 0.00 0.00 80 1008.7
20260508122319 38 75 0.0 0.0 0.00 0.00 0.00 81 1008.7
20260508122206 38 75 0.0 0.0 0.00 0.00 0.00 81 1008.6
20260508122131 38 75 0.0 0.0 0.00 0.00 0.00 81 1008.7
20260508122008 37 75 0.0 0.0 0.00 0.00 0.00 81 1008.7
20260508121913 37 75 0.0 0.0 0.00 0.00 0.00 81 1008.7
20260508121816 37 75 0.0 0.9 0.00 0.00 0.00 81 1008.7
20260508121720 37 75 0.0 1.7 0.00 0.00 0.00 81 1008.7
20260508121622 37 75 0.0 1.7 0.00 0.00 0.00 81 1008.6
20260508121551 36 75 0.0 1.7 0.00 0.00 0.00 80 1008.6
20260508121407 36 75 0.0 1.7 0.00 0.00 0.00 80 1008.6
20260508121331 36 75 0.0 1.7 0.00 0.00 0.00 80 1008.6
20260508121207 36 75 0.0 1.7 0.00 0.00 0.00 80 1008.7
20260508121111 36 75 0.9 1.7 0.00 0.00 0.00 80 1008.7
20260508121034 36 75 0.9 1.7 0.00 0.00 0.00 81 1008.7
20260508120916 35 75 0.9 1.7 0.00 0.00 0.00 81 1008.6
20260508120822 35 75 0.9 1.7 0.00 0.00 0.00 81 1008.7
20260508120726 35 75 0.9 1.7 0.00 0.00 0.00 80 1008.7
20260508120628 35 75 0.9 1.7 0.00 0.00 0.00 80 1008.7
20260508120510 35 75 0.9 1.7 0.00 0.00 0.00 81 1008.7
20260508120413 35 75 0.9 1.7 0.00 0.00 0.00 81 1008.7
20260508120316 35 75 0.9 1.7 0.00 0.00 0.00 81 1008.7
20260508120219 35 75 0.0 0.9 0.00 0.00 0.00 81 1008.6
20260508120106 35 75 0.0 0.9 0.00 0.00 0.00 82 1008.6
20260508120009 35 75 0.0 0.0 0.00 0.00 0.00 82 1008.6
20260508115933 35 75 0.0 0.0 0.00 0.00 0.00 82 1008.7
20260508115815 35 75 0.0 0.0 0.00 0.00 0.00 82 1008.6
20260508115717 35 75 0.0 0.0 0.00 0.00 0.00 82 1008.6
20260508115620 35 75 0.0 0.0 0.00 0.00 0.00 82 1008.6
20260508115507 34 75 0.0 0.0 0.00 0.00 0.00 82 1008.6
20260508115411 34 75 0.0 0.0 0.00 0.00 0.00 82 1008.6
20260508115333 34 75 0.0 0.0 0.00 0.00 0.00 82 1008.6
20260508115208 34 75 0.0 0.0 0.00 0.00 0.00 82 1008.6
20260508115111 34 75 0.0 0.0 0.00 0.00 0.00 82 1008.6
20260508115014 34 75 0.0 0.0 0.00 0.00 0.00 82 1008.6
20260508114921 34 75 0.0 0.0 0.00 0.00 0.00 82 1008.5
20260508114824 34 75 0.0 0.0 0.00 0.00 0.00 83 1008.6
20260508114728 34 75 0.0 0.0 0.00 0.00 0.00 84 1008.6
20260508114609 34 75 0.0 0.0 0.00 0.00 0.00 84 1008.6
20260508114512 34 75 0.0 0.0 0.00 0.00 0.00 84 1008.6
20260508114415 34 75 0.0 0.0 0.00 0.00 0.00 84 1008.5
20260508114317 33 75 0.0 0.0 0.00 0.00 0.00 83 1008.6
20260508114241 33 75 0.0 0.0 0.00 0.00 0.00 84 1008.5
20260508114127 33 75 0.0 0.0 0.00 0.00 0.00 84 1008.6
20260508114051 33 75 0.0 0.0 0.00 0.00 0.00 84 1008.6
20260508113905 33 75 0.0 0.0 0.00 0.00 0.00 84 1008.5
20260508113829 33 75 0.0 0.0 0.00 0.00 0.00 84 1008.5
20260508113731 33 75 0.0 0.0 0.00 0.00 0.00 84 1008.5
20260508113608 33 75 0.0 0.0 0.00 0.00 0.00 84 1008.5
20260508113511 33 75 0.0 0.0 0.00 0.00 0.00 84 1008.5
20260508113418 33 75 0.0 0.0 0.00 0.00 0.00 84 1008.6
20260508113321 33 75 0.0 0.0 0.00 0.00 0.00 84 1008.5
20260508113206 33 75 0.0 0.0 0.00 0.00 0.00 84 1008.5
20260508113110 33 75 0.0 0.0 0.00 0.00 0.00 84 1008.6
20260508113014 33 75 0.0 0.0 0.00 0.00 0.00 84 1008.5
20260508112918 33 75 0.0 0.0 0.00 0.00 0.00 84 1008.5
20260508112825 33 75 0.0 0.0 0.00 0.00 0.00 84 1008.6
20260508112730 33 75 0.0 0.0 0.00 0.00 0.00 84 1008.5
20260508112607 33 75 0.0 0.0 0.00 0.00 0.00 83 1008.5
20260508112511 33 75 0.0 0.0 0.00 0.00 0.00 83 1008.5
20260508112415 33 75 0.0 0.0 0.00 0.00 0.00 83 1008.5
20260508112319 33 75 0.0 0.0 0.00 0.00 0.00 83 1008.5
20260508112207 33 75 0.0 0.0 0.00 0.00 0.00 83 1008.5
20260508112111 33 75 0.0 0.0 0.00 0.00 0.00 83 1008.5
20260508112016 33 75 0.0 0.0 0.00 0.00 0.00 83 1008.5
20260508111919 33 75 0.0 0.0 0.00 0.00 0.00 83 1008.5
20260508111823 33 75 0.0 0.0 0.00 0.00 0.00 83 1008.5
20260508111707 33 75 0.0 0.0 0.00 0.00 0.00 83 1008.5
20260508111614 33 75 0.0 0.0 0.00 0.00 0.00 83 1008.5
20260508111538 33 75 0.0 0.0 0.00 0.00 0.00 83 1008.6
20260508111420 33 75 0.0 0.0 0.00 0.00 0.00 83 1008.4
20260508111324 33 75 0.0 0.0 0.00 0.00 0.00 83 1008.5
20260508111210 33 75 0.0 0.0 0.00 0.00 0.00 83 1008.5
20260508111113 33 75 0.0 0.0 0.00 0.00 0.00 83 1008.5
20260508111037 33 75 0.0 0.0 0.00 0.00 0.00 82 1008.5
20260508110924 33 75 0.0 0.0 0.00 0.00 0.00 82 1008.5
20260508110809 33 75 0.0 0.0 0.00 0.00 0.00 82 1008.5
20260508110714 33 75 0.0 0.0 0.00 0.00 0.00 82 1008.5
20260508110639 33 75 0.0 0.0 0.00 0.00 0.00 82 1008.5
20260508110523 33 75 0.0 0.0 0.00 0.00 0.00 81 1008.5
20260508110426 33 75 0.0 0.0 0.00 0.00 0.00 81 1008.5
20260508110331 33 75 0.0 0.0 0.00 0.00 0.00 81 1008.4
20260508110218 33 75 0.0 0.0 0.00 0.00 0.00 81 1008.5
20260508110122 33 75 0.0 0.0 0.00 0.00 0.00 81 1008.5
20260508110047 33 75 0.0 0.0 0.00 0.00 0.00 81 1008.5
20260508105950 33 75 0.0 0.0 0.00 0.00 0.00 81 1008.5
20260508105806 33 75 0.0 0.0 0.00 0.00 0.00 81 1008.4
20260508105710 34 75 0.0 0.0 0.00 0.00 0.00 81 1008.5
20260508105634 34 75 0.0 0.0 0.00 0.00 0.00 81 1008.5
20260508105523 34 75 0.0 0.0 0.00 0.00 0.00 81 1008.5
20260508105407 34 75 0.0 0.0 0.00 0.00 0.00 81 1008.5
20260508105313 34 75 0.0 0.0 0.00 0.00 0.00 81 1008.5
20260508105217 34 75 0.0 0.0 0.00 0.00 0.00 80 1008.5
20260508105122 34 75 0.0 0.0 0.00 0.00 0.00 80 1008.5
20260508105026 34 75 0.0 0.0 0.00 0.00 0.00 80 1008.4
20260508104913 34 75 0.0 0.0 0.00 0.00 0.00 79 1008.5
20260508104816 34 75 0.0 0.0 0.00 0.00 0.00 79 1008.5
20260508104721 34 75 0.0 0.0 0.00 0.00 0.00 79 1008.5
20260508104625 34 75 0.0 0.0 0.00 0.00 0.00 79 1008.5
20260508104510 34 75 0.0 0.0 0.00 0.00 0.00 78 1008.5
20260508104413 34 75 0.0 0.0 0.00 0.00 0.00 79 1008.5
20260508104322 34 75 0.0 0.0 0.00 0.00 0.00 78 1008.5
20260508104225 34 75 0.0 0.0 0.00 0.00 0.00 78 1008.5
20260508104110 34 75 0.0 0.0 0.00 0.00 0.00 78 1008.5
20260508104013 35 75 0.0 0.0 0.00 0.00 0.00 78 1008.5
20260508103917 35 75 0.0 0.0 0.00 0.00 0.00 78 1008.5
20260508103821 35 75 0.0 0.0 0.00 0.00 0.00 78 1008.6
20260508103730 35 75 0.0 0.0 0.00 0.00 0.00 78 1008.4
20260508103612 35 75 0.0 0.0 0.00 0.00 0.00 78 1008.5
20260508103517 35 75 0.0 0.0 0.00 0.00 0.00 78 1008.4
20260508103440 35 75 0.0 0.0 0.00 0.00 0.00 78 1008.5
20260508103324 35 75 0.0 0.0 0.00 0.00 0.00 78 1008.5
20260508103229 35 75 0.0 0.0 0.00 0.00 0.00 79 1008.5
20260508103112 35 75 0.0 0.0 0.00 0.00 0.00 79 1008.5
20260508103040 35 75 0.0 0.0 0.00 0.00 0.00 79 1008.5
20260508102923 35 75 0.0 0.0 0.00 0.00 0.00 79 1008.5
20260508102848 36 75 0.0 0.0 0.00 0.00 0.00 79 1008.5
20260508102750 36 75 0.0 0.0 0.00 0.00 0.00 79 1008.5
20260508102606 36 75 0.0 0.9 0.00 0.00 0.00 79 1008.5
20260508102531 36 75 0.0 0.9 0.00 0.00 0.00 78 1008.5
20260508102415 36 75 0.0 1.7 0.00 0.00 0.00 78 1008.5
20260508102318 36 75 0.0 1.7 0.00 0.00 0.00 77 1008.4
20260508102227 36 75 0.0 2.6 0.00 0.00 0.00 77 1008.5
20260508102111 36 75 0.0 2.6 0.00 0.00 0.00 77 1008.4
20260508102016 36 75 0.0 3.5 0.00 0.00 0.00 77 1008.5
20260508101920 36 75 0.0 3.5 0.00 0.00 0.00 77 1008.5
20260508101824 36 75 0.0 3.5 0.00 0.00 0.00 77 1008.5
20260508101729 36 75 0.9 3.5 0.00 0.00 0.00 77 1008.5
20260508101617 36 75 1.7 4.3 0.00 0.00 0.00 77 1008.4
20260508101542 36 75 1.7 4.3 0.00 0.00 0.00 77 1008.5
20260508101426 36 75 2.6 4.3 0.00 0.00 0.00 78 1008.5
20260508101350 36 75 2.6 4.3 0.00 0.00 0.00 78 1008.6
20260508101205 36 75 2.6 4.3 0.00 0.00 0.00 78 1008.5
20260508101110 36 75 2.6 4.3 0.00 0.00 0.00 78 1008.6
20260508101035 36 75 3.5 4.3 0.00 0.00 0.00 78 1008.4
20260508100918 36 76 3.5 4.3 0.00 0.00 0.00 78 1008.5
20260508100826 36 75 3.5 4.3 0.00 0.00 0.00 79 1008.4
20260508100752 36 75 3.5 4.3 0.00 0.00 0.00 79 1008.5
20260508100608 36 76 3.5 4.3 0.00 0.00 0.00 79 1008.4
20260508100513 36 78 4.3 4.3 0.00 0.00 0.00 79 1008.5
20260508100416 36 78 3.5 4.3 0.00 0.00 0.00 79 1008.5
20260508100320 36 82 3.5 5.2 0.00 0.00 0.00 78 1008.5
20260508100209 36 117 2.6 5.2 0.00 0.00 0.00 78 1008.5
20260508100112 36 234 1.7 3.5 0.00 0.00 0.00 78 1008.5
20260508100018 36 235 0.9 1.7 0.00 0.00 0.00 78 1008.5
20260508095921 36 235 0.9 1.7 0.00 0.00 0.00 78 1008.5
20260508095824 36 235 0.0 0.9 0.00 0.00 0.00 78 1008.5
20260508095709 36 235 0.0 0.0 0.00 0.00 0.00 78 1008.5
20260508095617 36 235 0.0 0.9 0.00 0.00 0.00 78 1008.5
20260508095520 36 235 0.0 1.7 0.00 0.00 0.00 78 1008.5
20260508095425 36 235 0.0 1.7 0.00 0.00 0.00 78 1008.4
20260508095329 36 235 0.0 1.7 0.00 0.00 0.00 78 1008.5
20260508095212 36 235 0.0 1.7 0.00 0.00 0.00 78 1008.4
20260508095117 36 235 0.0 1.7 0.00 0.00 0.00 78 1008.4
20260508095005 36 235 0.0 1.7 0.00 0.00 0.00 78 1008.5
20260508094910 36 235 0.0 1.7 0.00 0.00 0.00 78 1008.5
20260508094814 36 235 0.9 2.6 0.00 0.00 0.00 78 1008.4
20260508094719 36 235 0.9 2.6 0.00 0.00 0.00 78 1008.5
20260508094623 36 235 0.9 2.6 0.00 0.00 0.00 78 1008.5
20260508094526 36 235 0.9 2.6 0.00 0.00 0.00 78 1008.5
20260508094413 36 235 0.9 2.6 0.00 0.00 0.00 78 1008.5
20260508094318 36 235 0.9 2.6 0.00 0.00 0.00 78 1008.5
20260508094223 36 235 0.9 2.6 0.00 0.00 0.00 79 1008.5
20260508094107 36 235 1.7 2.6 0.00 0.00 0.00 79 1008.4
20260508094031 36 235 1.7 2.6 0.00 0.00 0.00 79 1008.5
20260508093908 36 235 0.9 3.5 0.00 0.00 0.00 79 1008.5
20260508093812 36 235 0.9 3.5 0.00 0.00 0.00 79 1008.4
20260508093739 36 235 0.9 3.5 0.00 0.00 0.00 79 1008.4
20260508093643 36 235 0.9 3.5 0.00 0.00 0.00 79 1008.4
20260508093506 36 235 0.9 3.5 0.00 0.00 0.00 80 1008.4
20260508093431 36 235 0.9 3.5 0.00 0.00 0.00 80 1008.4
20260508093308 36 234 0.9 3.5 0.00 0.00 0.00 80 1008.4
20260508093212 36 234 1.7 3.5 0.00 0.00 0.00 80 1008.4
20260508093117 36 234 1.7 3.5 0.00 0.00 0.00 80 1008.4
20260508093025 36 237 0.9 2.6 0.00 0.00 0.00 80 1008.4
20260508092929 36 237 0.9 2.6 0.00 0.00 0.00 79 1008.4
20260508092813 36 237 0.9 2.6 0.00 0.00 0.00 79 1008.4
20260508092716 36 237 0.9 2.6 0.00 0.00 0.00 79 1008.4
20260508092621 36 237 0.9 2.6 0.00 0.00 0.00 79 1008.4
20260508092506 36 237 1.7 2.6 0.00 0.00 0.00 79 1008.4
20260508092415 36 237 1.7 2.6 0.00 0.00 0.00 79 1008.4
20260508092339 36 237 1.7 2.6 0.00 0.00 0.00 79 1008.3
20260508092222 36 237 1.7 2.6 0.00 0.00 0.00 80 1008.3
20260508092146 36 237 0.9 2.6 0.00 0.00 0.00 80 1008.4
20260508092009 36 237 0.9 2.6 0.00 0.00 0.00 81 1008.4
20260508091934 36 237 0.9 2.6 0.00 0.00 0.00 81 1008.4
20260508091818 36 237 0.9 2.6 0.00 0.00 0.00 81 1008.5
20260508091742 36 237 0.9 2.6 0.00 0.00 0.00 82 1008.4
20260508091609 36 237 0.9 2.6 0.00 0.00 0.00 82 1008.4
20260508091514 36 237 0.9 2.6 0.00 0.00 0.00 82 1008.5
20260508091419 36 237 0.9 2.6 0.00 0.00 0.00 81 1008.4
20260508091345 36 237 0.9 2.6 0.00 0.00 0.00 81 1008.4
20260508091229 36 237 0.9 2.6 0.00 0.00 0.00 81 1008.4
20260508091106 37 237 0.9 2.6 0.00 0.00 0.00 81 1008.4
20260508091013 37 237 0.9 2.6 0.00 0.00 0.00 81 1008.5
20260508090918 37 237 0.9 2.6 0.00 0.00 0.00 82 1008.5
20260508090819 37 237 0.9 2.6 0.00 0.00 0.00 81 1008.5
20260508090723 37 237 0.9 2.6 0.00 0.00 0.00 82 1008.5
20260508090608 37 237 0.9 2.6 0.00 0.00 0.00 82 1008.5
20260508090512 37 237 0.9 2.6 0.00 0.00 0.00 81 1008.4
20260508090421 37 237 1.7 2.6 0.00 0.00 0.00 81 1008.4
20260508090306 37 237 1.7 2.6 0.00 0.00 0.00 81 1008.4
20260508090230 37 237 1.7 2.6 0.00 0.00 0.00 81 1008.4
20260508090107 37 237 1.7 2.6 0.00 0.00 0.00 81 1008.5
20260508090012 37 237 1.7 2.6 0.00 0.00 0.00 81 1008.4
20260508085916 37 237 0.9 2.6 0.00 0.00 0.00 80 1008.4
20260508085840 37 237 0.9 1.7 0.00 0.00 0.00 80 1008.4
20260508085706 37 237 0.0 1.7 0.00 0.00 0.00 80 1008.5
20260508085630 37 237 0.0 1.7 0.00 0.00 0.00 80 1008.4
20260508085507 37 237 0.0 1.7 0.00 0.00 0.00 80 1008.4
20260508085430 37 237 0.9 1.7 0.00 0.00 0.00 80 1008.4
20260508085307 37 237 0.9 2.6 0.00 0.00 0.00 80 1008.5
20260508085212 37 237 0.9 2.6 0.00 0.00 0.00 80 1008.5
20260508085139 37 237 0.9 2.6 0.00 0.00 0.00 79 1008.5
20260508085022 37 237 0.9 2.6 0.00 0.00 0.00 79 1008.4
20260508084925 37 237 0.9 2.6 0.00 0.00 0.00 79 1008.4
20260508084808 37 237 0.9 2.6 0.00 0.00 0.00 79 1008.5
20260508084712 37 237 0.9 2.6 0.00 0.00 0.00 78 1008.5
20260508084615 37 237 0.9 2.6 0.00 0.00 0.00 78 1008.4
20260508084522 37 237 0.9 2.6 0.00 0.00 0.00 78 1008.5
20260508084426 37 237 0.9 2.6 0.00 0.00 0.00 78 1008.5
20260508084310 37 237 0.9 2.6 0.00 0.00 0.00 78 1008.5
20260508084213 37 237 0.9 2.6 0.00 0.00 0.00 78 1008.5
20260508084117 37 237 0.9 2.6 0.00 0.00 0.00 78 1008.5
20260508084020 37 237 0.9 2.6 0.00 0.00 0.00 78 1008.5
20260508083927 37 237 0.9 2.6 0.00 0.00 0.00 78 1008.5
20260508083831 37 237 0.9 3.5 0.00 0.00 0.00 78 1008.4
20260508083707 37 237 0.9 3.5 0.00 0.00 0.00 78 1008.5
20260508083629 37 237 0.9 3.5 0.00 0.00 0.00 79 1008.5
20260508083512 37 237 1.7 3.5 0.00 0.00 0.00 79 1008.5
20260508083416 37 237 1.7 3.5 0.00 0.00 0.00 79 1008.5
20260508083319 37 237 1.7 3.5 0.00 0.00 0.00 79 1008.5
20260508083228 37 237 1.7 3.5 0.00 0.00 0.00 79 1008.5
20260508083131 37 237 1.7 3.5 0.00 0.00 0.00 80 1008.5
20260508083008 37 237 1.7 3.5 0.00 0.00 0.00 80 1008.6
20260508082931 37 237 1.7 3.5 0.00 0.00 0.00 80 1008.5
20260508082834 37 237 1.7 3.5 0.00 0.00 0.00 80 1008.5
20260508082716 37 237 1.7 3.5 0.00 0.00 0.00 80 1008.6
20260508082620 37 237 1.7 3.5 0.00 0.00 0.00 80 1008.6
20260508082508 37 238 1.7 3.5 0.00 0.00 0.00 80 1008.6
20260508082432 37 238 1.7 3.5 0.00 0.00 0.00 80 1008.5
20260508082309 37 237 1.7 3.5 0.00 0.00 0.00 80 1008.5
20260508082213 37 238 1.7 3.5 0.00 0.00 0.00 81 1008.6
20260508082116 37 237 1.7 3.5 0.00 0.00 0.00 81 1008.6
20260508082040 37 237 1.7 3.5 0.00 0.00 0.00 81 1008.5
20260508081943 37 237 1.7 3.5 0.00 0.00 0.00 81 1008.5
20260508081811 37 238 1.7 3.5 0.00 0.00 0.00 81 1008.6
20260508081715 37 238 1.7 3.5 0.00 0.00 0.00 81 1008.6
20260508081619 37 238 1.7 3.5 0.00 0.00 0.00 81 1008.5
20260508081543 37 238 1.7 3.5 0.00 0.00 0.00 81 1008.5
20260508081426 37 238 1.7 3.5 0.00 0.00 0.00 81 1008.6
20260508081309 37 238 1.7 3.5 0.00 0.00 0.00 81 1008.5
20260508081211 37 238 1.7 3.5 0.00 0.00 0.00 81 1008.5
20260508081119 37 237 1.7 2.6 0.00 0.00 0.00 81 1008.6
20260508081044 37 238 1.7 2.6 0.00 0.00 0.00 82 1008.6
20260508080927 37 238 1.7 2.6 0.00 0.00 0.00 82 1008.6
20260508080831 37 238 1.7 2.6 0.00 0.00 0.00 82 1008.6
20260508080714 37 238 1.7 3.5 0.00 0.00 0.00 82 1008.5
20260508080618 37 238 1.7 3.5 0.00 0.00 0.00 82 1008.6
20260508080543 37 238 1.7 3.5 0.00 0.00 0.00 81 1008.6
20260508080410 37 238 1.7 3.5 0.00 0.00 0.00 82 1008.6
20260508080334 37 238 1.7 3.5 0.00 0.00 0.00 82 1008.5
20260508080209 37 238 1.7 3.5 0.00 0.00 0.00 82 1008.6
20260508080112 37 238 1.7 3.5 0.00 0.00 0.00 82 1008.6
20260508080037 37 238 1.7 3.5 0.00 0.00 0.00 82 1008.6
20260508075919 37 238 1.7 3.5 0.00 0.00 0.00 82 1008.6
20260508075822 37 238 1.7 3.5 0.00 0.00 0.00 82 1008.6
20260508075731 37 238 1.7 3.5 0.00 0.00 0.00 82 1008.6
20260508075607 37 238 1.7 3.5 0.00 0.00 0.00 82 1008.6
20260508075530 37 238 1.7 3.5 0.00 0.00 0.00 82 1008.6
20260508075408 37 238 1.7 3.5 0.00 0.00 0.00 82 1008.7
20260508075312 37 238 1.7 2.6 0.00 0.00 0.00 82 1008.7
20260508075235 37 238 1.7 2.6 0.00 0.00 0.00 82 1008.6
20260508075118 37 238 0.9 2.6 0.00 0.00 0.00 82 1008.6
20260508075006 37 238 0.9 2.6 0.00 0.00 0.00 82 1008.7
20260508074931 37 238 0.9 2.6 0.00 0.00 0.00 82 1008.6
20260508074807 37 238 0.9 2.6 0.00 0.00 0.00 82 1008.6
20260508074710 37 238 1.7 2.6 0.00 0.00 0.00 82 1008.7
20260508074614 37 238 1.7 2.6 0.00 0.00 0.00 82 1008.6
20260508074518 37 238 1.7 2.6 0.00 0.00 0.00 82 1008.7
20260508074406 37 238 1.7 2.6 0.00 0.00 0.00 82 1008.7
20260508074330 37 238 0.9 2.6 0.00 0.00 0.00 82 1008.6
20260508074207 37 238 0.9 2.6 0.00 0.00 0.00 83 1008.7
20260508074129 37 238 0.9 2.6 0.00 0.00 0.00 83 1008.7
20260508074012 37 238 1.7 2.6 0.00 0.00 0.00 82 1008.7
20260508073936 37 238 1.7 2.6 0.00 0.00 0.00 82 1008.7
20260508073819 37 238 1.7 2.6 0.00 0.00 0.00 82 1008.7
20260508073707 37 238 1.7 2.6 0.00 0.00 0.00 82 1008.7
20260508073610 37 238 0.9 2.6 0.00 0.00 0.00 82 1008.8
20260508073514 37 238 1.7 2.6 0.00 0.00 0.00 82 1008.8
20260508073418 37 238 1.7 2.6 0.00 0.00 0.00 82 1008.7
20260508073320 37 238 1.7 2.6 0.00 0.00 0.00 82 1008.8
20260508073206 37 238 0.9 2.6 0.00 0.00 0.00 82 1008.7
20260508073131 37 238 0.9 2.6 0.00 0.00 0.00 82 1008.8
20260508073006 37 238 1.7 2.6 0.00 0.00 0.00 82 1008.8
20260508072909 37 238 1.7 2.6 0.00 0.00 0.00 82 1008.7
20260508072832 37 238 1.7 2.6 0.00 0.00 0.00 82 1008.8
20260508072735 37 238 1.7 2.6 0.00 0.00 0.00 82 1008.7
20260508072617 37 238 1.7 2.6 0.00 0.00 0.00 82 1008.7
20260508072520 37 239 1.7 2.6 0.00 0.00 0.00 82 1008.7
20260508072406 37 239 1.7 2.6 0.00 0.00 0.00 82 1008.7
20260508072308 37 239 0.9 2.6 0.00 0.00 0.00 82 1008.7
20260508072212 37 239 0.9 2.6 0.00 0.00 0.00 82 1008.8
20260508072134 37 239 0.9 2.6 0.00 0.00 0.00 82 1008.7
20260508072017 37 239 1.7 2.6 0.00 0.00 0.00 82 1008.7
20260508071919 37 239 1.7 2.6 0.00 0.00 0.00 82 1008.7
20260508071807 37 239 1.7 2.6 0.00 0.00 0.00 83 1008.8
20260508071709 37 239 1.7 2.6 0.00 0.00 0.00 83 1008.8
20260508071612 37 239 1.7 2.6 0.00 0.00 0.00 83 1008.8
20260508071516 37 239 1.7 2.6 0.00 0.00 0.00 82 1008.7
20260508071418 37 239 1.7 2.6 0.00 0.00 0.00 82 1008.8
20260508071342 37 240 1.7 2.6 0.00 0.00 0.00 82 1008.8
20260508071207 37 240 1.7 2.6 0.00 0.00 0.00 83 1008.7
20260508071130 37 240 1.7 2.6 0.00 0.00 0.00 83 1008.7
20260508071054 37 240 1.7 2.6 0.00 0.00 0.00 83 1008.8
20260508070910 37 239 1.7 2.6 0.00 0.00 0.00 83 1008.8
20260508070812 37 239 1.7 2.6 0.00 0.00 0.00 83 1008.8
20260508070716 37 239 0.9 2.6 0.00 0.00 0.00 83 1008.8
20260508070619 37 239 0.9 2.6 0.00 0.00 0.00 83 1008.8
20260508070506 37 239 1.7 2.6 0.00 0.00 0.00 83 1008.7
20260508070430 37 239 1.7 3.5 0.00 0.00 0.00 83 1008.8
20260508070306 37 239 0.9 3.5 0.00 0.00 0.00 83 1008.8
20260508070208 37 239 0.9 3.5 0.00 0.00 0.00 83 1008.8
20260508070111 37 239 0.9 3.5 0.00 0.00 0.00 83 1008.8
20260508070014 37 239 0.9 3.5 0.00 0.00 0.00 83 1008.8
20260508065919 37 239 0.9 3.5 0.00 0.00 0.00 83 1008.7
20260508065825 37 239 0.9 3.5 0.00 0.00 0.00 83 1008.8
20260508065728 36 239 1.7 3.5 0.00 0.00 0.00 83 1008.8
20260508065610 36 239 1.7 3.5 0.00 0.00 0.00 83 1008.8
20260508065535 36 239 0.9 2.6 0.00 0.00 0.00 82 1008.9
20260508065416 36 239 0.9 2.6 0.00 0.00 0.00 82 1008.8
20260508065320 36 239 0.9 2.6 0.00 0.00 0.00 82 1008.8
20260508065243 36 239 0.9 2.6 0.00 0.00 0.00 82 1008.8
20260508065109 36 240 0.9 2.6 0.00 0.00 0.00 82 1008.9
20260508065033 36 239 0.9 2.6 0.00 0.00 0.00 82 1008.9
20260508064909 36 239 0.9 2.6 0.00 0.00 0.00 81 1008.8
20260508064832 36 239 0.9 2.6 0.00 0.00 0.00 81 1008.9
20260508064716 36 239 0.9 2.6 0.00 0.00 0.00 81 1008.9
20260508064638 36 239 0.9 2.6 0.00 0.00 0.00 80 1008.8
20260508064520 36 239 0.9 2.6 0.00 0.00 0.00 80 1008.9
20260508064407 36 239 0.9 2.6 0.00 0.00 0.00 80 1008.9
20260508064330 36 239 1.7 2.6 0.00 0.00 0.00 79 1008.9
20260508064231 36 239 0.9 2.6 0.00 0.00 0.00 79 1008.9
20260508064108 36 239 0.9 2.6 0.00 0.00 0.00 79 1008.9
20260508064010 36 239 0.9 2.6 0.00 0.00 0.00 79 1008.9
20260508063913 37 239 0.9 2.6 0.00 0.00 0.00 79 1008.9
20260508063817 36 239 0.9 2.6 0.00 0.00 0.00 79 1009.0
20260508063725 37 239 0.9 2.6 0.00 0.00 0.00 79 1008.9
20260508063630 37 239 0.9 2.6 0.00 0.00 0.00 79 1009.0
20260508063513 37 239 0.9 1.7 0.00 0.00 0.00 79 1009.0
20260508063436 37 240 0.9 1.7 0.00 0.00 0.00 78 1009.0
20260508063318 37 239 0.9 1.7 0.00 0.00 0.00 78 1008.9
20260508063223 37 239 0.9 1.7 0.00 0.00 0.00 79 1009.0
20260508063109 37 239 0.9 1.7 0.00 0.00 0.00 79 1008.9
20260508063013 37 239 0.9 1.7 0.00 0.00 0.00 79 1009.1
20260508062938 37 239 0.9 1.7 0.00 0.00 0.00 79 1009.0
20260508062822 37 239 0.9 1.7 0.00 0.00 0.00 79 1009.1
20260508062706 37 239 1.7 1.7 0.00 0.00 0.00 79 1009.0
20260508062630 37 240 1.7 1.7 0.00 0.00 0.00 79 1009.0
20260508062514 37 240 0.9 1.7 0.00 0.00 0.00 79 1009.0
20260508062422 37 240 0.9 1.7 0.00 0.00 0.00 79 1009.1
20260508062307 37 240 0.9 1.7 0.00 0.00 0.00 79 1009.1
20260508062230 37 240 0.9 1.7 0.00 0.00 0.00 79 1009.1
20260508062108 36 240 0.9 1.7 0.00 0.00 0.00 79 1009.1
20260508062032 36 240 0.9 1.7 0.00 0.00 0.00 79 1009.1
20260508061916 36 240 0.9 1.7 0.00 0.00 0.00 79 1009.1
20260508061821 36 240 0.9 1.7 0.00 0.00 0.00 79 1009.1
20260508061729 36 240 0.9 1.7 0.00 0.00 0.00 79 1009.1
20260508061613 36 240 0.9 1.7 0.00 0.00 0.00 79 1009.1
20260508061537 36 240 0.9 1.7 0.00 0.00 0.00 79 1009.1
20260508061420 36 240 0.9 1.7 0.00 0.00 0.00 79 1009.1
20260508061324 36 240 0.9 1.7 0.00 0.00 0.00 79 1009.2
20260508061210 36 240 0.9 1.7 0.00 0.00 0.00 79 1009.1
20260508061117 36 240 0.9 1.7 0.00 0.00 0.00 79 1009.2
20260508061021 37 240 0.9 1.7 0.00 0.00 0.00 79 1009.1
20260508060924 36 240 0.9 1.7 0.00 0.00 0.00 79 1009.2
20260508060808 36 240 0.9 2.6 0.00 0.00 0.00 80 1009.2
20260508060732 36 240 0.9 2.6 0.00 0.00 0.00 80 1009.1
20260508060615 36 240 0.9 2.6 0.00 0.00 0.00 80 1009.2
20260508060519 36 240 0.9 2.6 0.00 0.00 0.00 80 1009.1
20260508060408 37 240 0.9 2.6 0.00 0.00 0.00 81 1009.1
20260508060333 37 240 0.9 2.6 0.00 0.00 0.00 81 1009.1
20260508060209 37 240 0.9 2.6 0.00 0.00 0.00 82 1009.1
20260508060113 37 240 0.9 2.6 0.00 0.00 0.00 82 1009.1
20260508060018 37 240 0.9 2.6 0.00 0.00 0.00 82 1009.2
20260508055941 37 240 0.9 2.6 0.00 0.00 0.00 82 1009.2
20260508055809 37 240 0.9 2.6 0.00 0.00 0.00 82 1009.2
20260508055712 37 240 1.7 2.6 0.00 0.00 0.00 82 1009.2